GFSGL_925_thetae_003.txt.gz
Theta_e
345 342 344 343 338 338 339 338 336 336 337 336 336 335 335 335 336 336 335 335 334 335 334 332 332 331 328 324 323 321 321 323 324 323 324 325 329 334 335 339 340 339 340
345 343 342 335 334 336 338 336 336 335 335 333 332 332 334 335 335 336 336 334 335 333 331 329 331 331 329 325 323 320 321 320 322 320 321 323 325 328 335 338 339 339 337
341 344 340 338 337 336 337 337 337 336 335 333 334 336 334 333 333 333 335 334 333 333 332 332 332 330 329 326 324 321 322 322 320 320 320 321 323 326 329 336 339 340 339
343 341 340 338 338 337 337 337 337 336 335 336 336 334 333 333 334 334 334 334 333 330 329 332 332 330 329 329 326 324 324 324 323 320 319 320 322 324 326 331 337 339 340
342 342 340 338 338 338 338 338 339 336 335 335 335 334 332 333 334 333 330 328 328 330 329 329 331 330 329 328 328 326 326 325 323 320 319 320 322 322 324 326 331 339 340
340 339 340 339 339 338 338 338 338 337 335 337 334 333 333 334 331 332 331 327 326 326 326 326 327 327 327 327 326 325 325 325 324 321 320 321 322 323 323 324 328 334 339
340 340 339 339 338 338 338 339 339 339 338 334 333 334 332 333 333 330 329 327 326 326 326 327 327 327 327 326 325 323 325 323 322 321 322 322 322 322 323 325 327 330 337
339 339 339 338 339 338 338 339 339 338 336 334 334 332 332 334 332 330 328 327 327 326 325 327 327 327 326 325 324 324 322 320 321 321 321 320 321 321 322 323 325 329 335
339 339 339 338 338 338 339 340 340 339 336 335 334 332 334 332 331 328 327 326 324 322 321 323 326 327 325 324 322 320 320 320 319 319 320 320 321 321 321 322 325 329 333
338 341 340 340 340 341 341 342 341 339 337 336 334 327 333 332 330 329 322 325 323 323 324 324 323 325 324 322 321 318 321 318 318 319 319 320 321 322 326 325 323 326 333
341 341 341 341 341 341 341 342 341 338 336 333 329 331 330 330 330 326 324 325 324 323 321 321 323 324 321 320 317 319 319 318 317 318 319 320 321 320 320 325 323 325 330
339 342 343 342 342 342 342 340 337 335 333 329 332 331 330 328 325 325 324 324 322 321 320 321 323 320 320 317 317 318 319 317 317 318 318 319 320 320 319 323 326 324 327
341 344 343 343 344 341 338 335 332 330 330 332 331 330 328 324 323 323 322 320 319 320 321 320 320 319 316 315 315 314 315 315 314 316 318 319 319 320 319 320 332 331 327
329 326 333 338 336 337 336 334 333 331 325 329 327 325 326 323 320 319 318 318 318 317 318 318 318 316 315 313 313 312 312 312 312 312 315 317 316 320 320 320 320 325 337
325 328 326 336 338 335 333 331 330 324 323 324 321 321 320 317 317 317 317 316 316 314 316 319 319 315 312 311 310 309 309 309 311 311 313 314 315 316 320 320 320 320 322
335 332 339 337 333 331 325 323 324 322 320 319 319 318 317 315 314 314 314 314 315 315 314 313 311 311 310 309 307 308 307 307 309 311 312 312 312 314 318 321 320 320 321
337 334 331 330 328 328 324 322 318 316 317 317 315 314 313 312 312 312 314 315 315 313 310 309 308 307 306 305 304 304 304 305 307 309 310 310 310 312 314 319 320 319 319
334 332 328 327 330 330 330 329 327 321 318 317 315 314 313 312 311 312 313 313 310 309 307 304 303 302 301 301 301 301 303 304 305 306 309 309 309 309 312 315 317 318 319
332 330 329 330 329 328 326 323 322 322 320 319 316 315 314 312 311 310 310 309 307 305 304 301 299 299 298 298 299 300 301 302 303 304 304 304 306 309 309 310 313 313 315
329 324 324 329 326 325 323 322 321 319 317 316 313 312 311 310 310 308 308 307 306 306 305 304 303 301 300 298 297 297 299 300 300 301 301 301 303 306 308 308 308 310 309
328 324 325 326 325 323 322 320 318 317 316 314 311 309 309 309 308 308 307 306 306 306 305 304 302 301 299 296 295 294 296 298 298 298 298 299 300 301 305 305 307 307 307
325 324 325 325 323 321 320 319 319 317 315 312 310 307 307 307 306 307 307 307 305 303 301 300 298 296 295 294 291 290 293 296 297 298 298 298 299 300 300 300 303 305 306
324 324 323 323 322 320 320 320 318 317 315 313 310 309 307 307 306 304 305 305 302 300 298 298 296 295 293 292 289 292 294 294 295 296 298 297 297 299 299 300 300 302 303
318 317 316 315 316 315 315 315 314 316 313 311 311 310 308 306 305 304 304 302 300 298 297 297 295 293 291 289 288 290 293 294 295 296 296 297 296 298 298 298 300 299 301
316 316 315 315 315 314 314 313 312 313 311 310 307 306 307 307 305 304 302 300 298 297 296 295 295 294 291 288 288 288 292 294 295 296 295 295 295 296 297 297 298 299 299
312 313 312 312 312 313 313 310 309 309 309 307 307 305 304 303 301 300 299 298 297 296 296 296 295 294 294 291 289 288 289 293 295 295 294 293 295 294 295 295 297 298 297

GFSGL_925_thetae_006.txt.gz
Theta_e
341 340 338 340 340 336 336 334 331 333 335 337 337 336 334 334 334 336 335 336 334 333 334 333 332 331 330 329 325 320 318 320 321 320 320 320 320 319 320 323 325 331 334
342 340 340 342 342 340 338 337 335 336 335 334 333 332 331 333 334 334 334 335 335 333 332 331 330 329 331 330 327 322 320 320 322 321 321 320 320 319 320 322 324 326 335
344 344 342 343 343 338 336 337 336 336 335 334 332 332 334 334 332 331 332 333 334 332 332 331 330 331 331 330 329 327 323 322 323 322 321 321 320 319 320 321 322 324 327
345 344 342 342 336 335 336 337 336 335 336 335 334 335 336 333 332 333 334 334 334 331 329 328 329 332 332 330 329 328 327 325 325 322 321 320 319 319 321 321 322 322 324
345 345 343 338 337 336 336 335 335 335 336 336 335 335 335 333 332 334 333 330 328 327 327 328 328 327 327 329 329 327 327 326 324 323 321 320 319 320 320 321 321 322 323
343 344 343 340 339 337 336 336 336 335 337 336 335 335 335 332 332 333 331 330 328 326 325 325 326 326 326 327 327 327 326 326 324 323 321 321 320 320 321 321 321 321 323
343 342 341 340 338 337 337 337 337 336 336 337 336 336 332 333 332 332 332 329 327 326 326 326 326 325 326 327 326 326 325 324 323 321 321 320 320 321 320 321 321 321 321
341 341 340 340 339 338 338 338 337 337 337 338 338 335 334 333 332 333 331 329 327 325 324 324 321 325 325 326 325 324 322 321 320 318 318 318 319 318 319 320 321 321 321
340 340 340 340 340 339 338 337 337 337 338 339 337 335 334 333 328 332 330 327 324 324 321 324 322 322 324 323 322 321 320 319 319 317 317 318 318 317 318 320 322 321 321
339 339 339 339 339 338 337 337 337 338 338 338 336 335 330 329 331 329 328 323 324 323 323 321 320 323 322 321 319 318 318 318 319 318 317 318 318 317 318 319 320 322 322
340 339 338 340 339 338 338 338 339 338 338 334 331 328 329 330 329 328 325 324 324 322 321 320 321 322 320 318 318 316 315 315 317 317 316 317 318 318 318 318 320 322 323
338 338 335 333 337 341 339 340 338 337 334 331 330 325 328 329 326 325 325 324 322 321 319 320 320 319 317 316 315 315 314 314 314 314 314 315 317 317 317 317 320 323 323
334 330 327 326 327 327 337 339 336 331 329 328 328 329 328 325 324 323 322 321 318 318 318 318 318 316 315 313 313 312 311 312 312 311 312 313 315 316 316 318 320 321 324
329 328 328 327 327 331 336 336 332 331 329 327 327 326 324 321 321 320 318 317 317 316 316 317 316 314 313 311 311 309 309 309 310 310 311 312 314 316 315 317 320 320 326
330 329 328 327 328 334 333 332 331 327 323 324 323 322 323 321 319 317 317 316 315 314 317 319 315 312 311 309 308 307 307 308 308 309 310 310 312 313 314 316 319 320 321
326 326 327 327 331 332 328 322 320 320 320 320 319 319 317 316 315 314 313 313 314 314 312 311 310 309 308 306 304 305 304 305 305 307 309 309 310 310 312 315 316 318 320
329 330 331 331 332 326 322 322 318 318 319 318 316 315 313 312 311 313 315 314 314 312 310 308 306 304 303 302 302 301 301 303 304 304 306 306 308 309 311 312 313 315 317
330 332 330 328 328 323 322 322 322 319 316 314 313 312 312 311 311 311 311 311 309 308 306 304 301 300 300 300 300 299 300 302 302 302 302 303 305 308 308 309 310 311 313
330 329 328 328 328 327 327 326 323 320 318 316 314 313 312 312 311 309 310 309 307 304 302 301 300 300 299 297 297 297 299 300 299 299 299 300 302 303 306 307 308 309 311
326 326 329 329 328 326 323 324 323 320 319 316 314 313 311 311 309 308 307 307 306 305 304 303 301 300 299 297 295 295 298 298 297 298 298 299 299 300 302 304 306 307 308
327 324 324 326 324 323 321 320 319 318 316 314 313 311 310 309 309 307 307 306 306 305 304 303 300 299 297 294 290 291 296 296 297 297 297 298 299 299 300 301 304 306 308
326 323 325 325 324 322 322 320 318 317 316 314 312 308 308 308 307 307 306 306 305 304 301 300 297 295 294 292 292 294 295 295 296 297 296 297 298 299 299 300 301 303 305
324 324 325 323 322 321 320 319 319 318 316 313 311 308 307 306 305 305 306 304 301 299 298 297 296 294 293 290 292 294 294 295 295 296 296 296 297 298 299 299 299 300 301
323 322 321 320 320 319 319 318 314 315 315 314 312 309 307 306 305 304 305 301 298 298 297 296 295 292 289 288 290 293 294 295 295 295 295 295 296 297 298 298 298 299 299
316 316 315 316 316 316 315 315 313 314 313 311 312 311 308 307 305 303 303 300 298 296 296 295 295 294 290 289 289 290 293 294 295 294 294 295 295 295 297 297 297 297 298
310 311 313 315 315 314 314 313 312 311 310 310 308 308 307 307 305 302 301 298 297 296 296 295 295 294 293 292 292 289 290 293 295 294 293 294 293 294 295 296 296 296 296

GFSGL_925_thetae_009.txt.gz
Theta_e
352 350 337 335 335 335 336 339 339 335 336 335 334 336 336 335 333 333 334 335 335 334 333 333 333 332 331 330 328 326 322 319 319 319 321 323 321 320 319 319 319 319 320
351 349 339 335 336 333 334 335 333 330 331 333 336 335 334 332 332 334 333 333 334 334 334 333 331 331 331 330 329 328 327 323 320 319 321 322 323 321 319 319 318 319 320
348 347 339 337 338 338 337 335 334 331 333 335 334 333 330 331 333 333 331 332 332 333 333 332 331 330 330 329 329 329 328 326 324 321 321 322 321 321 319 319 319 319 320
347 345 340 337 338 341 341 339 337 336 334 335 334 331 331 333 335 333 332 332 333 333 330 330 329 328 328 328 327 328 329 328 326 324 322 321 321 321 319 319 318 320 319
347 345 341 337 338 341 341 338 336 336 334 334 333 333 333 334 335 333 331 334 332 330 328 326 326 326 327 326 326 326 326 327 326 323 323 322 321 319 319 319 319 320 319
347 346 341 337 338 342 340 335 335 336 335 334 334 335 334 335 335 332 332 333 331 330 328 326 325 325 326 325 326 326 326 327 326 323 323 321 321 318 319 319 319 319 319
347 345 341 340 339 341 338 336 335 334 335 334 335 337 335 335 335 332 332 331 330 329 327 325 324 322 323 324 324 325 325 325 324 324 322 321 319 318 318 319 319 318 318
345 342 340 340 340 339 336 337 335 335 335 336 335 336 336 336 333 329 331 331 330 329 326 324 321 323 323 322 325 323 322 321 320 319 319 319 317 317 317 318 318 318 319
344 340 343 341 341 339 338 338 337 337 337 337 336 336 336 335 332 328 330 330 329 327 324 322 323 321 321 323 322 321 320 320 319 318 318 319 319 319 318 318 318 318 319
342 341 340 340 339 339 338 337 337 337 337 337 337 336 335 333 329 330 330 328 327 324 323 323 321 320 321 321 319 318 316 316 316 317 317 318 318 318 318 318 318 318 318
340 339 339 339 339 339 338 336 335 337 337 337 335 335 333 328 326 329 328 327 325 324 324 321 320 320 320 317 316 314 314 314 314 314 313 314 316 318 317 317 317 317 317
339 338 337 337 336 336 335 329 327 330 335 335 334 332 330 326 327 327 325 324 324 323 321 318 319 319 316 314 313 312 312 312 312 312 311 312 313 314 316 316 317 317 319
336 334 331 328 328 328 329 328 323 325 332 332 329 328 325 326 326 324 323 321 320 318 317 317 316 316 313 312 311 311 310 310 309 309 309 311 311 312 316 316 317 317 320
331 328 327 330 330 330 330 326 323 329 329 328 328 328 327 325 322 321 319 318 316 316 315 316 315 313 312 311 310 309 308 307 306 306 307 309 310 311 313 314 316 316 319
332 331 330 326 328 328 327 328 331 330 328 326 325 325 324 320 319 318 318 317 315 314 316 317 314 312 310 308 307 305 305 305 304 304 305 306 307 309 310 313 315 315 317
329 328 327 326 327 327 327 325 326 325 322 322 321 321 320 317 316 315 314 314 313 313 313 313 311 308 306 304 303 303 303 302 302 302 303 303 303 305 308 310 313 313 315
326 326 325 326 327 328 327 323 317 317 317 317 317 317 314 313 312 313 314 314 313 312 311 308 306 304 302 301 300 300 300 301 300 300 300 301 301 303 306 308 309 311 312
326 326 328 329 328 327 325 322 320 317 314 313 314 313 313 312 311 312 311 312 311 309 308 305 302 299 298 298 298 298 299 299 298 298 298 299 299 300 302 305 307 309 310
331 331 329 329 329 327 323 322 320 317 316 314 313 313 313 312 311 310 310 309 308 305 302 300 300 299 298 297 296 295 298 297 297 297 298 298 299 299 300 302 304 308 309
328 328 328 327 326 324 321 320 319 318 316 315 315 315 313 311 310 309 308 307 305 304 303 302 301 300 299 296 294 291 297 297 297 297 297 298 299 299 299 300 302 304 307
324 324 326 327 326 325 324 324 322 319 318 317 316 314 313 311 310 308 307 306 306 305 304 303 301 300 296 293 291 293 295 296 296 296 296 297 298 298 299 301 301 302 304
326 326 324 326 326 324 323 322 321 320 318 315 313 311 309 309 308 307 307 305 305 305 302 300 298 296 294 291 294 295 295 295 296 295 296 296 297 298 299 299 299 300 301
325 323 324 324 323 321 320 319 318 317 315 314 313 310 308 307 306 306 306 305 304 303 299 297 295 294 292 289 293 294 295 295 295 295 295 295 296 297 298 298 298 298 299
323 323 323 322 321 320 319 318 318 317 316 315 313 311 308 307 306 304 305 304 302 299 297 296 294 291 289 288 291 293 294 295 294 293 294 294 296 297 297 297 297 297 298
321 320 319 318 319 319 318 317 315 313 313 314 313 312 310 308 306 304 304 303 300 298 297 295 294 293 289 289 288 290 293 294 294 293 293 293 295 296 296 296 296 296 297
310 314 314 314 314 314 314 314 314 312 312 314 314 313 312 309 307 305 303 301 299 297 296 295 295 294 292 292 292 289 289 293 294 293 293 293 294 295 295 295 295 295 295

GFSGL_925_thetae_012.txt.gz
Theta_e
351 351 351 352 342 330 331 329 333 335 335 332 334 334 333 333 333 333 332 333 334 333 334 334 333 332 332 332 331 328 326 322 321 322 320 323 323 324 323 319 319 318 317
351 350 350 351 339 332 334 332 335 337 337 334 334 334 334 335 334 333 332 333 332 332 332 333 332 331 331 331 331 330 329 327 322 322 323 321 323 325 324 321 320 318 317
351 348 346 347 338 334 334 332 336 337 334 334 333 333 335 333 331 331 333 331 331 331 332 332 332 331 330 329 329 328 328 328 326 322 323 323 323 323 323 322 321 319 318
349 347 344 345 343 335 334 333 332 332 330 331 332 334 333 330 330 332 333 332 331 332 333 332 330 329 328 327 328 327 327 326 326 323 323 323 324 323 322 321 320 318 318
348 345 344 344 337 335 335 335 335 335 334 333 334 334 333 331 332 333 334 333 331 332 332 330 328 327 326 325 325 325 326 326 325 324 323 324 324 323 322 321 319 318 319
348 344 343 339 337 336 335 334 337 338 337 336 335 334 333 331 332 334 335 334 332 332 331 330 328 326 325 324 324 325 324 325 325 324 324 323 323 323 321 319 318 318 320
348 345 343 339 337 335 337 332 339 340 328 336 335 335 333 334 334 334 334 332 332 331 330 329 328 326 323 322 322 322 324 325 324 324 323 322 322 320 319 318 318 318 319
348 346 342 338 337 336 335 335 335 337 332 334 334 335 334 334 334 333 333 329 326 329 330 329 326 325 321 323 321 322 322 321 320 319 318 317 317 318 318 318 318 317 318
347 345 342 339 337 338 337 336 336 335 334 335 335 334 334 333 333 333 333 330 329 329 329 326 323 322 322 321 322 321 320 320 318 317 316 315 315 317 317 316 317 318 318
344 343 343 341 340 339 337 336 336 335 336 335 335 334 329 328 333 333 329 329 329 329 326 323 323 321 320 320 320 318 317 316 314 314 314 314 314 314 316 316 316 317 317
344 342 341 340 340 339 337 337 337 336 336 334 328 325 327 332 333 329 327 328 328 326 324 323 322 320 320 319 317 315 313 312 311 311 311 311 311 312 315 317 317 315 315
341 339 339 338 338 337 337 332 332 331 329 326 326 325 327 331 329 326 327 327 325 324 323 321 318 318 318 316 314 313 310 309 309 309 310 310 310 310 311 313 316 315 315
337 336 336 337 337 337 334 331 328 327 328 329 327 329 330 328 325 325 325 325 323 321 319 317 316 315 315 313 311 309 307 308 307 306 306 307 307 308 308 311 314 314 316
331 330 331 333 331 331 329 328 327 328 326 330 331 328 327 325 324 324 323 321 319 318 316 315 316 314 313 311 309 307 306 305 304 303 303 304 305 305 306 309 310 312 314
334 333 333 332 330 327 326 327 326 325 326 331 329 328 325 323 323 321 319 318 317 316 314 315 313 312 310 308 307 304 303 303 302 301 301 301 302 302 303 307 309 311 313
330 331 330 327 326 326 324 324 327 330 330 327 324 323 323 322 321 319 317 316 314 312 313 313 311 308 306 304 302 301 301 301 299 299 299 299 300 300 301 305 308 310 312
331 332 331 327 326 325 324 324 321 320 320 320 320 319 318 318 316 313 313 314 312 311 312 309 307 305 303 301 299 298 298 299 298 298 298 298 299 299 300 303 305 308 310
332 328 327 326 325 325 324 324 321 317 316 315 316 314 312 312 311 311 311 311 310 310 309 307 304 300 298 298 297 296 296 298 297 297 297 298 298 298 300 302 303 304 308
325 325 325 326 327 326 323 323 320 317 315 313 311 311 311 311 311 310 309 309 309 307 305 302 300 299 299 298 296 294 293 296 296 296 297 297 298 298 299 300 301 303 306
328 328 328 327 327 325 323 321 319 317 315 314 313 313 313 312 312 311 309 308 306 305 303 302 301 300 299 297 293 291 295 296 296 296 296 297 297 298 298 299 300 302 304
327 326 326 325 325 323 322 321 320 318 316 315 316 315 314 313 311 310 308 307 306 305 304 302 301 300 297 294 292 294 295 295 295 295 295 296 297 297 298 298 300 301 302
323 324 324 326 324 323 322 322 321 318 317 316 316 314 313 312 310 308 307 306 305 305 304 302 298 296 295 291 294 295 295 295 294 294 294 295 296 297 297 297 298 300 301
326 325 323 323 323 322 321 320 320 319 318 317 315 314 313 311 308 307 306 306 305 305 303 299 296 294 292 289 293 294 294 294 293 293 294 294 296 296 297 297 297 298 299
323 322 322 322 322 321 320 320 319 318 317 316 315 314 313 310 308 306 305 305 305 303 300 297 295 293 289 289 292 293 294 294 294 293 293 293 295 296 296 296 297 297 297
321 321 322 321 320 320 319 318 318 317 317 316 316 314 314 310 308 306 304 305 304 301 298 296 294 293 289 289 289 290 292 294 294 293 293 293 294 295 295 295 295 296 296
314 316 315 315 315 317 317 317 317 316 314 313 313 313 313 311 309 307 304 303 303 300 298 296 295 293 291 292 292 291 289 291 294 293 292 293 294 294 294 294 295 295 295

GFSGL_925_thetae_015.txt.gz
Theta_e
351 351 352 352 351 348 347 344 336 336 336 334 334 334 336 335 333 333 335 336 336 337 337 336 337 337 335 334 334 333 331 330 330 326 326 327 326 327 327 328 327 326 324
351 352 352 349 349 348 348 337 327 330 330 333 333 333 334 334 336 335 337 335 336 336 336 337 336 336 335 334 334 333 332 331 330 329 328 328 328 328 328 328 327 325 324
352 352 351 348 348 349 348 333 334 331 335 335 333 333 334 333 335 337 334 336 336 335 335 336 336 336 336 334 333 332 330 331 330 329 327 326 327 327 327 327 327 326 325
352 353 351 347 346 344 337 333 332 335 335 335 334 332 333 332 334 335 334 334 336 335 334 335 333 335 335 332 332 332 331 331 329 329 328 327 326 326 326 326 325 324 324
353 354 351 348 345 340 337 334 332 330 328 330 330 330 329 333 334 332 333 336 338 337 336 335 335 332 329 329 329 329 330 329 328 327 327 327 326 326 325 325 325 324 323
354 354 351 348 343 340 337 334 333 331 331 331 330 333 331 332 333 331 332 337 337 337 336 335 331 331 329 326 325 322 324 327 327 327 327 327 327 325 324 324 323 322 323
354 353 350 347 343 341 338 335 334 331 335 330 332 335 335 334 333 332 333 334 335 336 336 332 331 331 328 328 325 323 324 323 323 326 325 325 324 323 322 321 320 321 321
353 352 350 346 344 342 339 335 335 333 331 332 335 334 329 335 334 333 334 332 332 332 329 331 332 331 330 325 325 325 326 325 324 322 321 321 320 319 318 318 317 318 318
353 352 349 345 345 342 340 337 334 333 335 338 336 332 332 337 335 333 328 329 334 333 332 330 329 328 324 322 323 324 324 323 322 318 316 316 315 315 315 315 316 319 320
352 351 348 346 345 343 340 337 337 337 337 336 336 334 335 335 332 330 326 329 333 331 331 328 326 323 323 321 321 323 322 322 319 317 317 316 316 316 315 317 317 317 318
350 349 348 345 343 339 338 338 339 338 336 335 335 336 335 332 330 326 328 332 331 330 330 328 326 322 320 319 319 320 319 315 315 315 315 315 316 316 316 317 317 317 317
346 346 344 343 342 340 338 338 337 337 337 336 336 336 333 333 327 329 331 329 328 328 328 326 323 318 317 317 316 315 313 311 313 314 314 314 314 313 313 313 313 315 317
344 343 342 343 342 342 341 340 338 338 335 335 334 330 331 331 330 330 326 326 326 325 323 320 317 315 314 315 313 313 311 312 312 312 311 310 309 309 310 309 310 314 316
342 342 342 342 341 340 338 337 335 333 332 332 332 334 333 330 327 324 323 323 321 319 318 318 316 316 315 314 313 311 310 309 308 308 307 307 306 307 306 307 309 314 314
341 340 341 341 339 332 331 331 332 331 331 332 333 333 332 330 327 324 323 321 320 318 317 318 318 317 317 315 312 310 308 307 306 306 305 305 304 304 304 305 310 314 315
337 336 336 333 329 327 325 324 326 325 327 329 329 327 324 324 323 321 319 317 316 314 315 318 318 317 315 312 310 308 307 305 305 303 303 303 303 303 303 305 311 314 315
337 336 333 332 329 327 326 326 325 318 322 323 322 322 321 321 319 316 314 314 314 312 315 315 315 313 311 308 306 305 304 303 302 302 302 302 302 302 303 306 310 309 312
336 332 334 331 329 326 326 326 326 326 324 317 316 317 316 314 314 313 313 313 313 312 314 314 312 309 306 305 304 303 301 300 300 301 301 301 301 301 303 304 307 307 309
331 330 329 329 329 328 324 326 326 325 323 319 314 313 313 313 312 311 311 313 313 312 311 309 307 305 305 304 302 300 298 299 299 300 300 300 300 301 302 303 306 307 308
330 327 327 330 328 328 326 326 325 324 321 319 318 317 313 311 313 313 312 311 310 309 308 307 305 304 304 301 299 297 297 300 300 299 299 299 300 300 301 302 303 307 307
331 330 328 329 328 327 327 326 325 323 322 321 320 318 315 316 316 314 312 310 309 308 308 307 305 304 301 298 297 298 299 299 298 298 298 299 299 300 300 301 302 304 306
327 326 327 328 328 326 326 325 325 324 323 322 321 316 314 315 315 313 311 310 309 308 307 306 303 300 297 296 296 298 298 298 297 297 297 298 299 299 300 300 301 302 303
325 325 327 327 327 325 323 325 324 323 322 322 321 318 314 314 312 312 310 309 308 307 306 303 300 298 295 293 294 296 297 297 296 295 296 297 298 298 299 300 301 301 301
326 326 326 325 325 325 325 325 323 321 321 321 319 317 315 313 314 312 310 309 308 307 304 301 299 296 294 292 293 294 294 295 295 295 295 296 297 298 298 299 300 300 301
324 324 324 324 324 324 323 322 321 321 320 320 319 318 317 316 315 311 309 308 307 305 303 300 298 295 293 291 291 291 292 293 294 293 295 296 297 298 298 298 299 300 300
320 321 321 319 319 320 320 320 319 319 319 318 318 316 315 315 315 314 310 308 306 304 302 300 297 295 293 292 292 292 290 290 293 293 293 296 297 297 297 297 298 298 299

GFSGL_925_thetae_021.txt.gz
Theta_e
363 363 362 362 360 361 358 357 355 350 347 345 347 345 342 343 340 341 341 340 338 338 337 337 337 336 335 332 332 333 333 332 333 331 331 330 332 331 331 332 332 331 330
361 364 363 362 359 359 360 358 358 353 349 346 346 345 343 341 337 332 340 339 337 338 338 337 337 335 336 337 335 333 332 331 331 334 331 331 331 331 331 331 330 331 328
360 361 363 363 361 359 360 358 358 355 350 346 346 345 343 341 336 328 337 339 338 338 337 337 337 336 336 336 336 336 333 333 333 332 332 329 330 330 330 330 330 329 330
357 358 361 364 363 361 359 359 359 355 350 347 346 345 340 341 334 337 337 339 339 339 337 338 337 337 337 337 336 337 335 334 333 332 331 330 329 329 329 331 329 329 327
358 360 361 364 363 362 358 359 359 354 350 346 345 343 340 338 336 337 338 339 340 339 337 338 337 337 337 336 335 332 333 333 331 330 329 328 328 329 329 329 328 328 327
361 361 362 365 363 362 360 358 358 354 348 346 344 340 340 332 334 335 338 337 338 338 339 339 338 337 336 335 334 333 331 332 333 332 330 329 330 329 328 328 328 326 326
361 362 363 365 365 363 361 359 357 353 348 344 341 340 334 336 333 330 331 336 337 337 338 339 338 337 335 335 335 334 333 331 329 327 330 331 329 329 327 327 325 325 324
363 363 364 365 365 363 360 358 356 351 349 345 342 337 335 340 338 334 332 335 336 337 337 339 338 338 339 335 334 334 334 333 331 330 329 330 329 326 324 322 321 320 320
363 364 364 364 365 362 358 356 353 351 348 347 342 338 338 340 339 335 335 336 336 337 338 338 339 338 335 333 332 333 332 331 329 328 327 326 323 321 320 319 320 320 321
363 362 363 363 362 360 357 355 352 350 348 346 343 341 339 339 341 337 336 337 335 336 337 338 337 334 334 334 330 330 330 330 328 327 326 324 323 321 319 319 321 322 321
358 359 360 360 359 358 354 353 351 348 346 344 343 341 338 342 341 339 336 337 334 334 337 336 332 332 331 328 325 326 327 326 326 323 321 321 321 317 318 319 322 320 318
357 359 360 359 357 356 354 352 348 347 344 343 341 341 341 343 341 341 339 338 337 336 334 332 332 332 329 325 321 320 320 320 319 319 321 320 317 317 316 316 315 314 314
359 360 359 357 355 353 352 347 344 344 344 342 343 344 344 342 340 339 337 333 330 329 328 332 332 328 324 320 318 317 316 318 319 321 319 317 315 315 314 313 313 311 310
359 355 352 351 351 348 346 345 344 343 344 346 345 344 343 342 340 334 333 331 329 328 328 327 323 322 320 321 320 319 318 320 319 317 315 315 314 312 311 309 309 308 309
352 349 348 346 347 343 339 341 345 341 343 343 343 341 339 338 336 332 329 327 328 328 329 328 326 324 324 323 322 321 320 319 317 316 314 313 311 310 309 308 307 308 310
350 349 348 345 344 343 339 331 333 333 333 333 333 334 334 334 333 331 328 327 326 325 326 325 322 322 322 322 322 321 319 317 316 315 313 311 310 308 307 306 307 308 310
348 347 344 343 343 342 340 338 336 327 327 327 329 331 330 329 329 328 327 326 323 321 320 320 321 322 321 320 319 319 317 315 314 312 310 309 307 307 306 307 307 307 308
344 342 341 340 339 338 336 335 333 332 330 327 322 324 323 323 322 321 319 317 317 316 317 319 321 320 320 319 317 316 315 313 311 309 307 306 306 306 306 306 306 307 307
341 339 339 338 337 335 334 332 332 331 330 329 319 318 319 318 316 315 315 318 321 320 319 319 318 317 316 315 314 313 312 310 306 305 306 306 305 305 305 306 306 306 306
337 336 335 334 333 332 331 330 330 330 330 327 325 323 316 314 316 316 315 318 319 317 316 315 315 314 313 313 312 310 308 305 306 306 305 305 305 305 305 305 305 306 306
333 330 331 332 332 332 331 330 329 329 330 328 326 324 320 319 321 320 320 320 318 317 316 315 314 313 312 311 309 306 305 305 305 304 304 304 304 304 305 304 305 306 306
332 330 329 331 330 329 328 328 328 327 326 327 324 323 321 320 322 321 320 319 318 317 316 315 314 312 310 308 305 304 304 304 304 303 303 303 304 304 304 305 305 305 306
330 329 329 329 330 328 328 328 327 327 326 325 323 322 322 323 321 321 319 318 317 316 315 314 312 310 308 305 302 302 303 303 303 302 302 303 303 304 304 304 304 305 305
329 329 328 328 329 328 327 327 327 326 326 325 324 324 324 323 321 320 319 318 317 316 315 313 311 309 307 303 300 300 301 301 300 300 301 302 303 304 304 304 304 304 305
327 327 326 326 327 326 325 325 325 324 323 324 324 323 323 321 320 319 319 318 316 315 314 313 310 308 305 302 300 300 298 297 295 294 298 301 303 303 303 303 303 303 304
325 324 324 325 324 324 323 323 323 323 322 321 320 320 319 318 318 318 318 317 315 315 314 312 310 308 305 302 301 298 297 294 294 293 293 298 302 303 301 301 302 303 303

GFSGL_925_thetae_024.txt.gz
Theta_e
368 368 367 367 366 362 360 357 358 350 348 351 351 349 346 344 343 342 340 340 339 339 335 334 336 337 336 335 335 336 333 332 335 334 332 331 330 330 330 330 331 331 330
367 367 368 367 366 366 361 362 358 356 353 345 349 347 346 345 343 342 338 342 340 340 339 338 337 338 337 335 335 335 335 333 333 335 333 332 333 332 332 330 329 331 331
365 366 368 367 366 366 365 360 361 359 354 348 350 348 348 345 344 341 341 342 335 335 337 338 338 337 337 336 337 335 336 336 335 334 334 334 332 332 330 329 329 332 330
364 364 366 367 366 365 364 363 361 361 357 354 350 349 348 347 344 340 343 343 339 339 340 338 337 338 338 336 337 335 335 334 333 335 333 333 332 331 329 331 330 330 329
361 363 366 367 366 366 363 363 361 363 360 356 351 351 350 347 345 342 339 343 342 340 340 339 338 338 338 338 336 336 336 334 334 333 334 332 331 331 330 329 329 329 329
357 362 364 365 368 366 364 363 363 362 362 358 353 351 350 347 343 339 338 343 342 341 341 339 336 339 338 337 335 334 333 333 332 331 331 333 332 331 330 330 329 328 328
360 361 362 364 367 367 366 363 363 362 361 358 353 351 350 347 340 334 336 341 340 340 341 339 340 339 337 338 336 335 332 333 332 331 331 330 331 330 330 328 328 326 325
361 364 364 366 368 367 366 364 362 363 361 356 353 350 348 344 338 333 332 334 338 339 339 339 338 338 338 337 336 334 331 331 334 333 332 330 329 328 328 325 321 320 320
364 368 366 369 370 368 367 365 364 362 360 355 350 348 345 340 337 338 335 333 333 337 338 338 339 338 339 337 335 331 332 332 331 331 330 329 330 329 325 322 321 321 322
366 364 368 371 369 369 367 366 363 360 356 354 351 348 344 340 340 340 338 336 337 337 338 335 335 338 336 335 331 333 333 330 331 329 329 327 326 323 321 321 322 322 322
367 366 368 368 369 369 365 362 359 356 353 352 349 346 343 340 340 341 341 337 337 338 337 337 336 336 335 332 331 329 329 330 327 326 324 321 321 322 323 323 321 322 323
367 367 368 368 367 364 361 357 356 353 351 349 346 344 343 342 340 341 340 338 337 337 337 337 334 333 332 332 328 325 323 321 320 320 320 321 322 318 317 315 314 313 312
365 366 366 365 362 360 357 355 353 351 346 344 344 342 342 343 342 342 341 339 337 337 336 334 328 330 330 328 325 321 319 318 319 320 322 319 316 315 314 313 313 310 310
366 365 361 356 354 354 352 349 347 346 345 344 344 344 344 342 341 339 338 336 334 331 329 328 329 329 327 324 322 321 320 320 321 320 318 317 317 313 312 311 310 309 307
357 356 354 351 350 346 344 346 345 344 343 344 346 343 343 343 341 337 337 332 331 329 328 327 324 323 323 322 321 322 322 321 320 320 317 316 314 313 311 309 308 307 309
351 349 349 349 344 337 335 335 337 339 338 337 337 338 339 340 338 334 329 328 329 328 326 330 328 327 327 326 325 323 322 321 319 317 315 314 312 310 309 308 307 309 309
351 349 346 346 345 343 340 335 327 325 330 330 331 333 334 334 333 331 329 327 326 325 325 324 322 323 322 322 321 320 321 318 316 314 313 312 309 308 308 308 307 308 309
350 346 347 344 344 344 342 341 336 330 328 322 325 326 327 329 329 327 326 324 320 318 318 320 320 321 320 320 318 317 316 315 312 310 307 306 307 307 307 307 307 307 307
343 342 343 342 341 339 337 336 335 333 332 323 319 321 321 321 321 319 318 320 321 322 321 321 319 318 317 316 316 315 314 312 309 306 306 308 307 306 306 306 306 306 307
340 341 340 338 334 335 334 332 332 333 332 326 325 322 318 318 317 317 316 316 320 320 318 317 316 315 315 314 314 313 311 308 307 308 307 305 305 305 305 306 306 306 307
337 334 333 335 333 333 332 331 331 333 332 329 328 324 321 320 321 321 319 319 321 319 318 317 316 314 314 313 312 309 307 306 306 306 305 304 304 305 306 305 306 306 307
333 332 332 333 333 332 331 330 329 331 332 331 329 325 322 321 323 322 320 321 320 319 318 316 316 315 312 310 308 306 305 305 305 305 304 304 304 305 305 305 306 306 306
331 330 330 331 330 329 328 329 328 327 328 328 327 322 321 322 324 322 321 320 318 317 317 316 315 313 310 308 305 303 303 304 304 303 303 303 304 304 304 305 305 305 306
329 329 330 331 329 329 329 328 328 326 326 326 324 324 323 324 324 322 321 319 317 317 316 315 314 312 309 307 304 302 302 302 302 301 301 301 303 304 304 304 304 303 305
329 329 328 329 328 328 326 326 326 326 325 326 326 325 324 325 322 321 320 318 317 316 315 314 314 311 309 307 304 301 300 299 299 298 294 299 301 303 304 302 303 303 304
325 326 326 326 326 325 326 325 325 324 324 323 324 324 323 322 322 320 320 319 318 316 315 314 313 311 308 306 304 302 300 299 296 294 294 295 301 303 303 301 303 302 303

GFSGL_925_thetae_027.txt.gz
Theta_e
364 362 364 363 361 357 357 360 352 354 349 347 349 347 346 344 343 342 343 338 339 339 339 337 338 337 335 335 335 335 334 333 332 333 334 332 332 332 331 331 331 329 330
365 365 363 364 365 362 358 358 356 352 352 352 349 348 347 344 342 343 342 339 338 340 339 338 335 337 336 334 333 333 333 335 334 334 333 332 332 330 332 331 330 330 328
366 366 366 364 365 365 361 358 356 356 352 352 350 348 348 346 342 342 342 341 339 341 339 336 334 335 337 337 336 336 335 335 335 335 334 333 331 332 332 332 330 330 328
367 366 366 366 365 365 364 361 361 358 358 353 352 349 348 347 345 343 342 341 337 340 340 339 338 338 336 336 335 336 336 334 334 333 333 333 332 331 332 332 329 328 329
366 366 365 366 366 365 365 364 359 362 359 358 353 350 349 347 346 344 342 342 337 341 339 338 338 339 337 336 336 335 336 335 334 333 334 333 332 332 331 330 329 329 328
363 364 364 364 366 366 365 364 364 359 361 359 356 351 350 349 348 346 344 342 340 341 339 337 340 338 337 338 338 337 336 335 335 333 333 331 331 332 331 330 329 328 325
358 362 363 363 364 365 365 364 364 362 361 362 358 354 351 350 348 347 345 342 339 339 342 338 341 339 337 338 338 336 335 334 333 332 332 331 331 329 329 329 328 328 327
356 358 362 363 364 366 365 364 363 363 362 362 360 356 352 351 350 347 344 341 339 342 341 341 341 339 334 336 337 337 336 333 330 332 332 331 331 330 329 328 328 326 322
356 357 361 363 364 365 366 365 363 363 363 363 360 356 353 350 350 346 341 335 337 339 340 340 340 338 334 336 334 332 332 331 331 330 331 329 328 330 330 328 326 322 320
354 359 360 362 363 366 366 365 364 363 362 361 358 355 352 350 347 344 335 333 332 331 333 334 334 337 335 334 331 333 332 330 330 331 329 328 327 325 322 322 323 321 321
359 361 363 364 366 367 366 365 364 362 362 358 353 351 349 348 344 340 337 337 337 336 337 336 336 336 334 333 334 332 331 330 329 327 324 322 319 320 321 321 316 317 318
365 364 369 370 368 367 366 365 363 360 357 354 352 349 348 345 343 340 339 340 339 338 337 338 336 335 335 335 332 330 328 325 322 320 318 319 320 316 316 314 313 313 312
367 370 370 369 368 366 363 359 356 354 351 349 348 346 345 344 342 341 340 339 340 338 338 337 335 334 333 331 331 328 324 320 319 319 320 321 317 316 313 312 311 309 308
367 366 363 360 358 357 356 356 353 350 348 346 345 344 343 341 342 342 342 341 338 335 336 336 330 328 329 329 326 323 321 320 319 320 320 318 317 314 313 311 308 307 306
357 353 352 350 349 348 349 348 348 347 346 344 343 342 343 343 342 341 340 338 336 335 333 327 327 326 324 323 322 322 321 321 320 320 320 318 314 313 311 308 308 307 307
351 351 344 341 341 341 340 337 342 344 344 343 344 344 343 342 341 338 337 334 333 331 327 326 325 324 324 324 323 322 322 323 322 321 318 314 312 310 307 308 307 306 307
348 346 343 339 337 335 335 332 324 331 334 336 336 336 339 339 339 334 329 328 328 327 326 327 329 325 323 324 326 324 324 323 322 316 313 308 307 307 307 307 306 306 307
347 347 345 342 339 336 334 331 330 328 327 328 331 332 333 334 333 329 327 325 324 324 325 322 321 320 323 322 321 318 314 313 311 310 308 306 306 307 306 305 305 306 306
346 346 345 343 342 340 337 333 332 327 325 326 326 328 329 328 328 326 325 323 320 320 318 319 318 317 316 315 314 313 313 311 310 307 306 307 307 305 305 305 306 305 305
343 344 345 343 342 341 340 336 332 329 323 322 322 324 323 323 321 320 318 318 320 320 318 315 315 315 314 314 313 313 311 308 307 306 307 306 304 304 304 305 305 305 306
335 336 336 335 336 336 334 332 333 329 325 323 322 323 323 321 319 317 317 316 318 320 317 316 315 314 314 313 313 311 308 306 305 306 304 304 304 304 305 304 304 305 305
335 334 335 334 333 332 331 331 333 331 328 326 325 324 323 320 319 320 319 319 320 318 317 316 316 314 312 310 309 306 304 304 305 304 303 303 303 304 304 304 305 305 304
332 330 331 331 333 330 329 330 332 332 331 329 327 324 320 321 322 323 321 320 320 318 317 316 316 314 312 310 308 306 303 303 303 303 303 303 303 303 304 304 304 304 303
331 330 330 329 329 329 328 327 327 329 330 329 326 325 323 321 322 324 322 321 319 318 317 316 315 313 311 309 305 303 301 302 302 302 301 298 301 303 303 303 302 302 302
329 330 330 329 328 328 328 327 326 327 326 325 325 324 323 322 323 324 322 320 319 317 317 316 315 313 312 310 307 303 301 301 301 300 299 297 296 302 303 301 301 302 302
327 328 328 328 327 327 326 324 325 326 326 326 325 324 324 324 324 322 321 320 318 318 317 316 314 312 311 309 308 305 302 301 300 297 295 295 297 302 303 302 302 302 302

GFSGL_925_thetae_030.txt.gz
Theta_e
356 356 356 355 353 353 357 358 355 352 349 346 347 347 346 347 342 337 340 341 338 334 338 338 335 335 336 336 335 334 334 333 331 331 333 333 332 331 331 331 331 332 331
358 358 357 357 356 354 353 354 359 355 352 347 348 348 346 347 345 337 339 340 340 337 338 339 337 336 336 337 335 335 334 333 333 332 332 332 332 332 332 332 332 330 331
359 359 359 359 359 357 355 354 353 359 354 353 350 348 347 347 346 342 339 339 341 336 337 338 338 337 337 337 335 334 334 334 335 335 334 332 332 331 331 330 331 332 331
360 359 359 360 361 360 358 356 355 354 358 353 353 352 349 347 346 345 343 341 341 339 337 339 339 338 335 334 336 336 335 336 334 333 333 332 332 332 331 331 331 329 329
361 361 360 360 360 361 361 359 356 355 356 356 353 352 351 349 347 346 344 342 341 341 338 338 340 339 337 337 337 336 335 335 335 334 333 332 332 332 331 330 330 330 329
361 362 362 362 361 361 362 362 359 358 356 356 354 353 352 350 348 347 346 343 342 341 340 336 336 338 337 336 338 336 335 335 334 334 333 332 332 331 330 331 330 329 325
361 362 362 363 362 362 362 362 362 359 359 359 357 355 354 352 350 348 347 345 343 342 341 336 338 339 338 340 338 332 335 336 335 333 332 331 330 330 330 329 329 328 327
360 361 362 362 362 363 363 362 362 362 358 359 359 358 356 354 352 349 348 346 344 344 342 339 334 337 338 338 336 334 335 335 333 332 331 330 330 330 330 330 329 329 327
358 360 361 362 361 363 363 363 362 362 360 360 359 358 356 355 354 351 348 345 345 344 341 338 337 339 338 336 335 332 334 333 330 332 331 331 331 329 327 329 329 327 323
353 356 359 361 361 361 363 362 362 362 361 361 360 359 359 356 356 351 348 346 343 342 339 341 340 339 338 337 335 334 334 329 331 331 330 329 328 327 323 320 322 322 321
352 353 354 359 360 361 363 363 362 361 361 360 358 357 357 357 353 351 349 346 342 338 335 335 332 334 335 334 334 331 331 331 331 329 327 324 320 319 319 316 313 313 316
349 351 354 357 360 361 363 364 362 361 359 356 352 351 352 353 352 349 346 342 336 334 334 335 338 337 336 336 335 333 333 330 327 324 320 318 320 318 316 314 312 311 310
352 353 356 359 360 363 364 363 360 358 355 350 350 350 348 348 347 345 343 339 337 338 338 338 337 336 334 334 333 332 329 327 323 319 318 320 318 316 314 314 312 309 308
357 363 365 364 364 364 362 360 357 353 350 349 347 345 345 344 343 342 340 338 338 338 337 336 336 333 330 329 329 328 326 323 319 318 319 320 319 315 314 311 309 307 307
364 364 362 358 355 350 349 349 350 350 351 347 347 347 344 343 343 341 341 340 340 339 336 334 333 328 327 327 327 325 323 321 319 319 319 319 318 314 311 308 307 307 306
351 347 345 339 334 333 336 337 342 348 347 348 345 345 343 342 342 342 341 339 338 337 333 331 327 326 325 325 324 323 322 321 320 320 321 319 314 311 308 307 307 306 305
345 341 337 336 335 333 332 332 332 339 342 343 343 343 343 342 341 338 337 335 333 331 329 326 326 326 326 326 325 323 322 322 323 322 317 310 307 306 306 306 305 305 305
341 339 338 337 336 337 338 339 334 331 330 330 338 340 341 339 336 333 330 328 327 327 327 326 326 327 323 322 324 324 322 319 315 310 309 307 306 306 305 304 304 305 304
344 341 339 337 335 334 332 330 330 331 328 329 332 335 337 336 331 327 326 326 326 324 323 321 318 320 320 318 317 314 313 312 311 309 306 306 306 305 304 304 305 304 304
343 342 341 338 337 334 331 329 328 327 325 326 327 328 330 329 327 326 326 324 321 320 319 317 316 316 315 314 314 313 312 309 307 306 306 306 304 304 304 304 304 304 304
344 343 342 341 339 336 333 331 329 327 324 323 326 327 328 328 327 326 325 320 319 319 317 315 314 314 313 313 312 311 308 306 305 305 305 303 303 303 304 304 304 304 303
336 341 342 341 338 335 334 331 329 326 324 323 323 324 326 325 325 323 320 317 316 317 316 316 315 315 315 313 312 311 307 305 304 304 303 303 303 303 304 304 304 303 302
332 333 333 332 331 330 331 333 331 328 327 324 323 323 323 323 321 319 318 318 317 320 316 316 316 316 315 314 312 309 307 304 304 303 303 303 302 302 303 303 303 301 302
330 329 330 330 331 331 329 328 331 330 329 327 326 324 323 322 321 320 320 320 319 319 317 316 316 315 314 313 311 309 307 303 303 302 302 301 297 300 302 303 301 301 302
327 329 329 329 329 328 327 328 329 330 329 328 327 325 323 322 322 321 323 323 321 320 317 317 316 315 313 313 311 309 306 301 301 301 301 300 299 296 302 302 301 301 302
329 329 328 328 327 327 327 327 327 326 328 329 328 327 326 323 321 322 323 323 321 320 318 317 316 314 313 312 310 309 306 301 300 300 298 296 295 298 302 302 302 301 301

GFSGL_925_thetae_033.txt.gz
Theta_e
352 352 353 353 353 353 352 350 350 353 351 350 351 350 349 349 345 342 338 338 339 337 337 335 334 334 334 334 334 334 333 332 329 331 331 332 332 331 331 331 331 331 331
352 352 352 352 352 353 353 351 351 352 353 351 350 348 348 347 345 344 341 338 338 339 334 334 337 337 334 335 336 335 334 333 333 331 331 331 331 332 332 331 329 330 330
351 353 353 353 353 352 352 352 351 354 355 351 349 347 347 346 346 345 344 339 336 337 337 333 336 338 337 336 336 336 334 334 333 333 333 333 332 330 330 331 330 330 330
352 353 353 354 354 354 353 352 352 352 356 356 351 349 347 346 347 346 345 343 337 337 336 335 334 337 337 336 336 336 335 334 335 334 333 332 332 331 331 331 330 329 329
353 354 354 354 354 354 354 353 352 352 353 355 355 350 348 348 348 347 346 346 342 339 338 338 334 335 337 338 337 334 335 336 335 334 334 332 332 332 331 331 330 330 330
354 355 355 355 356 356 356 356 355 353 353 353 353 355 352 350 349 348 347 346 345 343 341 340 339 336 337 339 338 338 338 336 335 334 334 332 332 332 330 330 329 329 326
356 356 356 356 356 357 358 358 357 355 354 354 353 352 352 352 351 351 350 347 346 344 342 341 339 339 336 337 337 338 338 337 330 333 334 333 332 331 330 330 329 328 328
356 357 358 357 357 357 357 359 359 357 355 354 353 353 353 353 353 351 351 348 346 345 344 342 342 340 337 336 338 338 338 337 330 331 333 332 331 331 330 330 329 329 328
356 357 358 359 359 358 358 358 359 359 357 356 354 353 354 353 352 352 351 346 344 345 344 343 343 342 339 334 338 338 337 334 332 332 332 331 331 329 328 326 326 326 324
356 357 358 359 360 360 360 359 359 359 359 356 355 356 356 354 356 356 352 345 344 345 346 345 344 341 339 338 340 337 335 334 332 331 330 330 329 328 324 320 319 321 321
354 356 357 359 359 359 360 360 360 360 359 357 357 356 355 355 357 356 350 346 346 346 345 345 341 339 339 338 334 334 334 334 332 331 329 326 322 319 318 316 314 313 317
351 352 357 357 359 359 359 360 360 360 359 357 358 354 354 357 357 354 350 349 349 347 345 343 338 337 335 336 335 335 335 332 331 328 325 319 318 320 317 315 313 312 310
348 350 351 355 357 359 359 360 361 360 359 358 355 351 347 353 355 353 350 349 347 344 338 334 334 337 337 335 336 335 333 331 328 324 320 318 319 316 315 314 314 311 308
345 347 350 351 355 358 359 360 361 360 358 355 351 348 344 347 349 349 348 345 340 337 335 337 338 335 333 332 332 331 330 327 325 320 318 318 319 318 316 313 311 307 307
348 348 350 352 355 358 353 356 361 358 357 350 348 345 342 342 346 346 345 342 338 336 337 336 334 332 330 328 328 327 326 324 321 319 318 318 319 318 315 311 307 306 306
352 347 347 344 336 332 337 337 343 346 346 346 346 336 336 339 343 344 342 341 339 337 335 333 332 332 328 326 325 323 322 322 321 319 319 319 319 316 312 308 306 305 304
338 336 336 336 337 338 335 335 334 334 333 333 335 337 340 343 343 342 340 340 339 335 333 333 332 330 325 324 323 323 323 322 321 320 320 321 316 310 306 306 304 304 304
338 341 341 343 341 335 333 332 333 333 338 336 341 342 342 341 341 340 339 336 329 332 334 330 326 325 325 326 325 322 323 323 322 321 317 309 307 306 306 304 303 304 303
337 337 339 338 336 335 334 333 334 335 333 326 334 339 340 341 339 337 334 331 328 328 326 326 326 326 324 321 322 323 322 318 313 310 309 306 306 305 304 303 304 303 303
340 338 336 333 330 331 331 330 328 327 326 327 329 330 335 335 330 329 328 327 327 325 325 324 319 319 320 319 316 315 313 312 311 309 306 305 305 304 303 303 303 303 303
339 337 335 333 331 330 329 329 326 326 326 328 330 335 334 328 324 324 324 325 323 321 319 318 319 317 315 314 313 313 312 310 308 305 305 306 304 303 303 303 303 303 302
339 339 338 337 335 332 331 330 328 326 325 325 326 329 330 329 326 325 325 321 319 320 319 317 315 314 315 315 314 312 310 306 305 304 305 304 303 303 303 303 303 303 301
333 335 335 335 335 333 331 330 327 325 325 325 325 325 325 324 325 324 323 319 318 318 316 315 315 315 315 314 313 312 311 308 306 304 304 303 303 302 302 302 302 301 301
326 328 329 329 331 333 333 332 330 326 323 323 322 322 324 323 323 323 320 317 316 317 315 315 315 316 316 314 312 311 309 307 304 303 303 302 301 298 298 302 302 300 301
324 326 328 328 327 326 327 329 329 328 326 324 322 322 322 323 323 322 319 318 318 317 319 317 316 316 315 314 313 311 309 306 302 302 302 301 300 299 297 300 302 301 301
329 329 329 329 328 328 327 328 328 328 326 327 327 326 324 323 323 322 320 320 322 321 319 318 317 316 315 314 312 310 309 307 303 301 301 300 299 296 295 302 302 301 300

GFSGL_925_thetae_036.txt.gz
Theta_e
350 351 351 351 351 351 351 350 350 351 349 348 350 350 351 350 349 348 345 342 339 338 337 333 332 333 334 333 333 333 332 330 329 330 330 331 331 331 331 330 330 330 331
348 351 351 351 351 351 351 350 350 351 350 348 349 351 349 350 349 349 346 343 339 337 338 336 335 333 333 332 333 334 333 333 332 331 331 331 331 331 331 331 331 330 329
348 350 351 351 351 351 350 350 350 351 350 349 351 351 349 350 349 348 347 344 341 338 336 336 333 335 336 334 334 335 334 334 333 332 332 332 332 331 330 330 330 329 329
348 350 350 351 351 351 351 351 351 351 351 350 349 352 351 350 349 347 347 345 343 341 338 336 336 332 335 336 334 334 335 334 333 333 333 333 332 332 331 331 330 329 329
348 349 350 350 350 350 350 351 351 351 351 351 349 351 351 350 348 347 346 345 344 343 342 337 337 336 334 335 336 335 335 335 334 334 332 332 332 332 332 330 329 329 329
349 349 350 351 351 351 351 350 350 351 351 351 350 350 350 349 349 348 346 345 345 344 344 343 338 338 336 335 337 337 337 334 335 335 334 333 333 332 331 330 329 329 330
349 349 350 351 351 352 352 352 351 350 350 351 351 349 349 350 350 349 348 346 346 345 345 344 341 340 338 338 336 338 338 338 337 337 335 332 333 332 331 330 329 329 328
350 350 351 351 352 352 352 353 352 352 351 351 351 351 349 349 350 352 352 349 346 345 346 345 344 343 341 339 338 337 337 337 338 337 335 330 333 332 331 330 329 328 327
352 352 352 353 353 353 354 354 354 354 353 352 352 351 350 349 349 350 351 348 344 346 346 345 344 343 342 341 340 337 337 337 337 336 333 333 331 331 330 328 327 325 325
353 353 353 354 354 354 354 354 355 356 355 354 353 352 351 350 351 351 350 346 343 343 345 344 344 344 343 342 339 337 338 338 335 332 331 329 329 328 327 325 321 322 321
350 353 354 355 355 355 355 355 355 356 357 356 355 354 351 351 352 352 351 345 344 343 343 344 345 345 343 340 338 338 339 337 334 332 330 329 327 322 319 317 315 314 314
349 352 354 355 356 357 357 356 356 356 357 357 357 355 353 352 352 352 352 348 349 346 345 347 347 344 340 338 338 336 334 334 333 330 328 325 319 318 317 317 314 314 313
347 350 354 354 356 357 357 358 358 358 358 358 358 355 354 352 350 352 353 349 350 348 349 347 344 340 337 335 335 335 334 334 332 329 325 320 318 317 316 314 314 313 311
343 347 349 351 355 356 357 358 359 359 359 359 358 356 354 348 339 334 335 333 341 346 345 338 335 335 335 337 335 335 334 332 330 327 322 317 318 318 317 316 314 311 307
344 344 347 349 346 340 339 347 354 339 355 359 357 355 344 337 338 340 332 332 339 337 334 335 336 335 333 332 332 332 330 328 325 322 318 318 318 318 318 315 312 307 306
342 341 340 338 339 338 338 331 334 338 339 335 334 337 336 335 333 332 331 331 337 341 336 334 333 333 331 329 328 327 326 325 323 319 318 318 318 318 318 313 307 305 304
338 338 338 338 335 334 332 331 331 331 330 330 330 329 328 330 329 331 331 337 339 336 334 333 331 330 330 327 326 325 324 323 321 320 319 319 319 319 315 308 305 303 304
341 340 337 336 335 333 333 333 332 332 331 333 331 330 332 333 332 332 335 338 332 333 333 332 333 333 332 328 324 322 322 321 321 320 320 320 320 314 307 305 303 303 303
340 340 338 334 333 333 333 333 334 332 332 331 331 328 331 334 338 333 333 331 328 329 332 334 334 332 328 324 324 323 322 322 322 322 320 314 309 306 305 303 303 303 303
335 335 334 336 336 334 333 333 333 332 328 326 329 329 323 322 322 327 331 331 330 333 334 333 328 326 325 324 321 321 321 320 317 312 310 308 306 305 303 303 303 303 303
335 333 333 331 330 330 330 329 329 330 330 330 328 325 328 329 326 331 334 332 332 330 328 326 325 323 321 320 319 317 315 314 312 311 308 305 305 304 303 303 303 303 302
336 334 333 332 331 330 328 329 330 330 329 328 326 325 326 330 330 329 326 326 327 326 325 323 319 319 318 315 314 313 313 312 310 307 305 304 305 303 302 303 302 302 301
336 335 333 332 331 331 330 327 327 327 327 327 323 325 327 328 326 326 326 326 324 321 319 318 318 316 315 315 314 312 311 310 308 306 304 304 303 302 302 302 302 302 301
331 332 333 332 331 330 329 326 326 326 325 323 323 323 326 326 326 325 324 322 319 319 319 318 316 315 315 314 313 312 310 309 307 305 304 303 302 302 300 301 302 301 301
327 328 328 327 328 327 329 329 328 328 325 325 326 325 325 323 324 325 324 321 317 318 318 316 315 315 315 314 313 311 310 308 305 303 303 302 302 300 298 297 300 301 300
328 328 328 327 326 328 329 329 328 327 325 324 324 324 324 324 323 322 321 318 317 316 317 316 315 314 314 314 313 311 310 307 304 301 301 301 300 299 297 296 301 301 300

GFSGL_925_thetae_042.txt.gz
Theta_e
357 358 358 358 358 358 357 358 358 357 357 356 355 356 355 358 359 358 355 353 353 351 346 343 345 341 337 337 337 336 336 335 336 335 335 337 339 339 336 337 337 337 334
357 358 358 358 358 358 359 358 358 358 358 357 357 357 355 356 358 358 357 353 353 351 349 345 344 343 342 339 337 337 336 336 335 337 336 336 339 339 339 340 337 334 334
356 357 358 359 358 359 359 358 358 358 358 358 358 359 357 355 357 357 357 356 353 352 350 348 345 343 342 338 338 336 337 338 338 336 336 338 336 337 339 339 337 336 336
353 355 357 359 359 359 359 359 359 359 359 359 359 360 358 356 354 355 356 356 355 353 351 349 347 343 342 342 340 339 337 337 338 338 336 335 337 337 337 335 337 337 335
354 355 357 358 359 359 359 359 359 360 360 360 359 359 358 357 354 355 355 355 356 355 353 350 348 346 342 342 340 340 339 339 336 338 337 335 335 337 337 335 336 335 335
354 356 356 359 360 360 360 360 360 360 360 360 360 360 359 357 354 351 355 355 355 356 355 352 349 346 345 342 340 338 340 342 340 336 336 336 337 337 337 337 334 335 335
354 356 357 359 360 361 360 360 361 361 361 361 360 360 360 359 355 352 351 354 354 356 356 354 352 349 347 346 341 337 336 338 338 340 340 338 337 339 339 339 335 335 335
356 356 358 359 360 361 361 361 361 361 361 362 361 360 360 360 358 354 351 351 354 356 356 355 354 352 350 348 347 342 339 338 337 338 340 341 341 341 340 338 337 336 335
357 357 358 359 360 360 362 362 361 360 360 360 361 360 360 360 358 356 353 351 352 355 356 355 355 354 352 348 348 348 344 340 339 337 338 339 341 340 338 337 336 335 334
357 358 357 358 360 361 361 360 360 359 359 359 359 359 360 360 359 358 355 352 352 353 355 356 355 354 353 351 347 347 343 341 341 340 339 339 340 338 333 335 334 334 333
354 355 356 358 360 359 360 360 360 359 359 358 358 357 357 358 358 357 357 353 352 353 354 356 355 352 352 351 348 345 344 344 343 342 339 338 338 337 333 332 334 332 327
353 354 356 359 358 358 359 360 360 360 360 361 360 358 357 356 356 354 353 355 352 353 355 354 354 353 350 349 346 344 344 344 343 340 339 338 336 334 332 332 329 325 322
354 355 358 359 360 357 360 361 360 360 359 359 359 358 356 357 355 348 337 338 354 351 353 354 353 350 349 345 341 341 342 342 341 338 337 336 334 332 330 326 325 325 323
356 357 359 361 361 360 360 361 360 359 359 358 357 357 353 351 349 350 348 351 354 353 343 349 349 346 343 336 335 339 340 339 339 337 336 335 334 330 325 324 321 321 320
358 359 360 360 360 361 361 357 359 358 355 356 356 356 357 357 357 357 354 352 350 342 338 341 336 334 336 338 338 339 338 337 336 336 336 334 330 327 324 322 321 321 320
357 357 357 358 360 360 357 346 350 353 358 359 360 361 362 360 360 360 357 355 352 342 338 335 336 335 334 334 334 334 335 335 335 335 334 331 327 324 323 323 321 320 320
355 353 352 354 355 355 354 347 344 341 346 349 348 350 351 353 356 353 344 340 335 334 333 332 333 334 335 333 333 334 334 334 334 333 331 328 326 324 323 323 321 320 319
350 349 352 352 353 351 350 348 345 343 341 336 335 338 338 339 337 336 334 333 328 329 335 335 335 334 333 333 333 333 333 333 332 330 328 326 325 324 323 322 321 319 316
348 347 348 347 347 346 345 343 341 338 337 336 333 331 330 331 332 333 332 333 329 331 336 335 335 333 333 332 333 332 332 331 330 328 327 325 325 324 323 321 320 315 312
341 341 342 342 342 341 340 339 338 340 341 335 336 334 327 329 329 327 329 330 329 331 333 334 335 333 332 331 331 330 330 329 328 326 325 325 324 322 321 319 316 312 309
341 340 340 342 342 342 342 341 340 338 337 334 333 331 328 331 331 328 329 333 332 334 335 334 332 330 329 330 330 330 328 327 326 326 325 324 323 320 317 315 311 310 310
341 340 338 338 338 338 337 336 334 333 332 331 331 325 328 333 332 331 332 334 332 332 333 332 331 331 330 330 330 328 326 325 325 324 323 321 319 318 315 311 310 310 309
339 340 339 338 337 336 337 337 336 335 333 331 329 329 330 330 331 331 332 332 332 333 333 333 333 331 330 328 326 325 324 323 322 321 319 318 316 314 311 310 310 309 308
336 337 336 336 336 335 335 335 335 333 331 329 330 332 335 335 335 334 333 332 331 330 329 328 327 326 324 322 321 320 319 319 318 318 316 314 313 310 310 310 309 308 307
332 333 333 334 333 333 334 333 333 332 334 334 334 333 331 331 330 329 328 327 326 326 324 323 323 322 320 319 318 317 315 314 314 313 313 312 311 310 309 309 309 308 306
324 324 321 321 321 324 326 328 329 329 329 328 327 328 329 328 328 328 326 324 323 323 323 322 322 321 320 318 317 316 312 309 309 308 311 310 310 309 308 308 307 306 306

GFSGL_925_thetae_045.txt.gz
Theta_e
364 364 365 365 364 364 361 360 359 360 360 355 357 357 358 358 359 360 358 355 356 354 351 350 347 343 341 339 340 339 338 337 337 336 337 339 338 339 338 338 338 337 337
363 364 365 365 365 365 364 362 362 361 361 362 357 359 359 358 359 361 360 354 356 356 354 350 348 347 345 341 340 339 338 337 337 342 337 342 340 340 340 341 340 336 336
361 362 364 365 365 364 364 364 363 363 363 362 362 361 361 359 359 362 361 360 356 357 356 354 350 348 349 342 339 339 339 339 339 339 337 339 339 341 341 342 341 339 338
359 361 362 365 365 364 364 365 364 364 364 364 364 363 362 361 359 360 361 361 359 357 357 355 353 349 348 348 345 341 342 340 340 340 338 336 339 339 339 339 341 340 339
358 361 362 364 366 365 364 364 365 364 365 365 365 364 364 363 360 359 359 361 361 360 358 357 355 351 348 347 346 344 341 342 338 339 339 338 336 337 339 339 338 337 339
357 359 361 363 365 366 366 365 365 365 365 365 366 365 365 364 359 357 358 359 360 361 361 359 356 353 349 346 344 341 342 343 340 337 337 340 341 339 337 338 337 337 337
357 360 361 363 364 366 367 366 366 367 366 366 366 366 366 365 362 357 356 357 359 360 361 361 360 355 351 348 344 342 341 342 341 343 340 341 341 340 339 341 340 339 338
359 358 362 363 365 366 367 367 367 367 367 367 367 366 366 366 365 361 356 355 357 358 359 359 360 358 354 350 349 345 342 340 340 340 342 342 339 341 343 342 341 341 339
361 361 359 364 365 367 368 368 367 367 367 367 367 367 366 366 365 363 361 355 356 357 357 358 359 360 357 352 351 351 346 343 340 339 336 337 343 342 342 342 339 339 337
361 361 362 363 365 366 367 368 367 367 367 365 366 366 366 366 365 363 361 359 357 356 357 357 358 360 359 356 352 352 352 347 344 341 340 335 338 339 339 339 338 337 336
356 359 363 364 366 366 367 367 367 367 364 365 365 365 366 365 366 362 360 358 357 357 357 357 358 359 358 357 356 353 352 350 344 342 339 338 338 338 340 339 337 337 335
357 359 362 364 364 365 368 368 368 367 367 367 366 366 364 365 363 363 357 351 354 357 356 355 356 355 357 357 356 355 352 349 343 343 341 341 340 339 339 337 335 334 334
361 362 363 365 365 363 367 369 367 367 363 363 363 363 361 361 363 361 358 354 353 356 357 357 356 356 355 357 356 353 349 345 345 343 342 340 339 338 337 336 334 333 328
363 364 365 366 367 365 364 364 364 362 363 361 361 360 361 359 358 360 360 357 356 351 354 353 354 353 353 353 350 348 344 338 335 342 341 340 338 337 335 334 330 328 326
360 361 362 363 364 364 361 357 362 360 356 361 360 360 359 359 358 358 356 355 351 347 345 348 345 345 346 341 338 340 338 340 341 340 341 339 337 335 332 329 327 325 323
360 360 360 361 363 363 358 348 348 348 352 353 353 358 358 360 359 359 359 357 353 351 346 340 338 337 336 336 338 339 339 338 340 340 338 336 335 332 329 327 325 324 323
362 361 359 360 362 362 363 361 359 342 349 356 355 354 353 347 348 349 348 349 353 348 344 338 338 338 338 337 336 336 338 338 339 338 337 335 333 329 328 325 324 324 322
358 356 357 357 357 358 358 354 355 356 354 347 335 336 336 338 338 340 339 338 333 334 333 333 334 334 334 334 334 336 337 338 336 337 335 332 329 328 326 326 325 323 322
354 354 355 355 354 353 351 350 348 347 344 341 336 333 331 335 334 335 333 332 332 332 334 334 334 334 333 333 334 334 335 336 335 334 331 330 329 328 327 325 324 323 321
346 347 348 348 347 348 347 345 344 344 344 342 341 341 332 334 335 332 334 336 335 336 337 338 338 336 336 333 334 335 334 334 333 332 331 330 329 327 326 325 323 321 318
344 344 345 345 345 345 345 344 343 343 343 342 340 337 334 336 336 335 332 334 335 334 336 337 337 336 334 333 333 333 332 332 332 330 329 328 327 326 324 323 322 319 316
342 342 342 341 341 340 340 339 338 338 337 336 335 331 330 333 335 336 334 335 336 336 337 337 336 335 332 332 331 331 332 331 330 329 328 327 326 325 323 321 319 316 313
340 340 340 340 339 340 339 338 337 337 337 337 336 333 333 336 336 335 334 335 335 337 335 335 333 331 331 331 331 331 331 330 329 328 327 326 324 323 321 319 315 313 312
336 336 337 336 336 336 337 337 336 335 336 336 337 337 337 337 337 337 337 337 337 336 335 334 334 334 332 332 331 330 328 326 325 325 324 323 322 320 319 315 313 312 312
331 330 331 333 334 334 334 333 333 335 336 336 334 334 333 334 335 334 335 334 334 333 333 332 331 330 329 327 325 323 321 321 322 321 322 321 320 317 315 314 313 312 311
325 325 324 324 325 327 326 326 326 326 329 328 329 330 332 331 330 329 329 328 328 327 326 325 325 325 323 322 321 318 317 315 316 316 317 316 316 315 314 312 312 311 311

GFSGL_925_thetae_048.txt.gz
Theta_e
365 366 365 365 364 360 357 358 353 354 354 357 361 361 357 358 358 361 359 359 356 357 356 353 352 342 338 342 340 340 339 338 341 338 341 338 337 335 338 337 337 337 337
366 366 366 366 366 365 362 359 360 360 359 355 360 359 359 357 360 360 362 358 359 359 355 355 355 350 341 341 345 340 339 339 338 340 342 339 337 337 336 338 340 339 339
365 367 367 367 367 367 366 362 361 361 362 362 362 360 360 361 360 360 362 361 357 361 359 355 354 353 349 341 341 343 340 340 341 339 340 341 341 342 340 338 340 340 336
362 366 367 367 368 368 367 367 364 363 362 363 363 364 363 361 361 361 361 362 362 358 360 359 356 353 351 349 342 339 341 342 339 341 340 338 341 341 341 342 342 341 339
359 363 366 366 367 367 368 367 367 365 365 364 365 365 363 364 363 362 361 363 364 362 359 359 359 356 352 348 350 345 341 339 345 341 342 342 340 343 343 340 339 339 340
360 361 364 365 366 368 367 367 367 368 366 367 366 366 366 365 364 362 361 361 363 363 363 360 360 358 356 352 348 349 343 343 343 344 343 341 341 339 341 341 341 340 341
358 363 364 365 366 367 368 368 367 368 368 367 368 367 367 367 365 364 361 360 361 362 363 362 361 360 358 355 352 348 347 345 340 340 341 341 341 340 339 340 341 340 340
360 361 364 366 367 368 369 369 368 368 368 368 368 368 367 367 366 365 363 360 360 360 361 362 362 361 360 358 353 350 347 345 344 342 340 337 340 342 341 339 340 341 340
362 361 362 366 367 368 369 370 370 369 369 369 369 368 368 367 367 366 365 362 358 359 360 360 361 362 360 360 356 352 347 345 343 341 343 344 340 339 341 342 341 340 341
363 362 362 361 366 368 368 369 370 370 369 369 369 369 368 368 368 367 366 363 359 358 359 357 359 360 361 360 359 354 352 348 345 343 341 343 342 341 341 340 340 341 340
362 363 362 364 362 367 368 369 370 370 370 369 369 369 369 369 368 368 367 365 363 360 358 356 355 358 358 360 360 356 354 353 349 345 342 341 340 336 340 341 340 339 338
357 363 365 366 364 366 368 370 371 371 370 370 369 369 369 369 368 368 368 366 364 362 359 358 356 357 358 358 358 360 356 354 353 345 342 340 339 337 335 336 336 334 338
362 362 365 366 368 365 369 370 371 371 370 370 369 369 368 367 368 367 366 366 365 362 358 355 357 358 357 356 358 358 359 354 351 345 342 341 334 333 338 338 337 337 337
366 365 366 368 369 368 368 370 370 370 370 368 368 366 367 366 363 366 366 365 364 363 361 358 358 356 355 355 352 352 350 350 348 343 342 334 334 338 339 340 337 335 333
368 368 368 368 369 370 365 365 369 367 364 368 366 365 364 364 363 360 359 360 361 360 357 355 355 352 349 350 350 350 346 348 346 341 336 335 337 340 338 337 336 334 331
367 368 366 365 368 368 352 346 351 351 351 355 360 361 358 357 358 358 358 356 355 358 351 350 350 348 344 344 342 342 344 346 344 339 338 339 339 336 336 335 333 329 326
367 363 363 362 366 366 358 352 342 338 347 353 354 355 355 353 350 348 348 350 354 356 349 347 344 340 338 338 338 339 339 339 341 341 341 337 335 335 334 331 327 326 326
367 361 363 361 366 365 365 363 357 346 343 334 334 337 336 337 337 338 340 341 338 338 339 338 336 336 336 336 336 336 337 339 340 338 336 335 334 333 329 327 327 326 325
361 359 360 360 361 362 358 357 357 358 354 336 330 331 335 336 336 337 337 338 337 337 336 335 334 334 333 333 333 333 335 337 337 337 335 334 333 329 328 327 326 326 325
355 354 355 353 353 352 351 350 348 347 345 342 342 336 333 336 336 337 337 336 337 336 336 338 338 337 337 335 334 333 333 334 336 334 333 333 331 330 328 328 327 325 324
349 349 349 349 348 348 347 346 346 346 345 344 340 336 338 339 338 336 335 335 335 335 335 336 337 337 335 334 334 335 335 334 334 333 332 331 330 330 329 327 326 322 321
346 346 346 346 346 345 345 344 344 343 341 339 337 332 334 336 337 337 336 336 336 337 338 337 336 336 336 335 334 334 334 334 333 332 331 331 331 330 328 327 325 323 320
343 342 342 342 340 339 339 338 338 338 338 337 335 334 335 337 336 336 336 336 337 337 337 337 336 336 335 335 333 333 333 333 333 332 330 328 328 328 327 324 322 320 317
336 336 336 336 337 336 336 337 336 337 337 337 338 337 338 338 338 338 338 337 336 337 336 336 335 334 333 334 332 332 332 332 331 330 329 329 328 326 324 322 321 317 314
327 330 332 330 330 333 331 331 331 329 329 330 331 330 329 331 330 330 336 336 337 337 337 336 335 335 333 331 331 331 331 330 330 329 327 325 324 323 322 321 318 315 314
323 323 323 323 324 325 325 325 325 326 325 323 322 321 322 323 323 325 325 326 326 327 330 331 332 333 331 331 328 324 322 323 324 323 323 323 322 321 320 318 316 314 314

GFSGL_925_thetae_051.txt.gz
Theta_e
359 358 359 359 356 352 360 357 348 347 353 358 353 357 357 356 356 357 356 355 358 358 358 356 352 344 335 341 342 339 338 338 338 338 339 338 338 338 338 338 336 338 338
360 360 359 361 362 359 354 358 357 346 346 353 360 360 357 354 356 356 356 355 358 357 358 357 354 352 350 334 339 341 339 339 338 337 340 340 336 335 335 337 338 338 336
361 362 363 362 363 363 359 355 356 355 347 346 352 361 359 356 357 356 355 357 358 358 357 356 355 353 351 350 339 342 342 339 339 338 339 339 337 336 336 336 335 336 338
361 363 364 364 364 364 364 361 356 356 356 353 350 354 362 359 357 356 355 354 355 355 356 359 358 355 352 352 350 340 342 344 340 342 340 342 341 339 337 338 337 337 338
362 363 364 364 365 365 365 365 364 359 360 359 359 361 359 362 360 357 357 357 357 357 355 356 359 359 356 352 350 347 339 341 344 341 341 340 338 342 343 341 339 339 339
354 363 364 365 365 366 366 366 366 366 361 362 362 360 363 363 362 360 359 359 359 359 360 358 357 359 359 357 353 349 344 340 339 344 340 340 340 339 341 342 341 341 342
355 355 362 365 366 366 366 367 366 367 366 364 363 364 362 363 363 363 362 360 360 360 361 361 360 358 359 359 357 355 352 348 343 337 342 341 339 340 340 342 341 340 339
355 358 358 362 365 365 366 367 367 367 367 367 366 364 365 364 363 363 363 363 361 360 361 362 361 360 359 359 358 357 353 350 349 346 340 339 341 340 339 340 341 340 340
357 360 360 362 364 365 365 366 366 366 366 366 367 366 366 366 365 365 365 363 361 361 360 360 361 361 361 360 359 356 354 351 350 349 348 344 340 340 341 341 342 342 340
360 362 362 363 365 365 366 366 367 367 366 366 366 367 366 366 366 366 366 365 361 360 360 359 359 360 360 361 360 358 354 352 351 348 347 346 344 342 341 341 341 340 339
359 358 359 362 365 366 366 367 367 368 368 367 367 366 367 367 366 367 367 367 364 363 361 359 358 358 358 359 361 360 358 356 353 349 346 344 342 344 344 342 340 337 338
359 362 361 360 362 366 367 367 368 368 369 368 368 367 368 368 368 368 367 368 366 365 364 363 360 358 356 355 353 357 360 360 356 353 347 343 341 341 342 342 339 339 338
353 362 362 361 361 362 367 368 368 368 368 369 369 368 367 367 368 368 368 368 368 368 365 364 363 361 358 357 357 356 356 356 355 354 352 346 342 340 340 340 339 335 338
357 356 367 365 365 365 362 368 369 370 369 369 368 368 367 367 367 366 367 368 367 367 367 366 364 362 359 356 354 354 354 353 349 352 352 346 342 339 339 338 337 337 336
363 358 369 368 367 368 364 367 368 368 369 369 368 367 366 364 365 367 365 364 366 366 365 362 357 356 356 356 355 352 350 349 344 347 349 346 340 338 336 335 337 336 333
370 362 371 369 368 366 355 348 356 360 361 366 367 367 363 362 362 360 360 358 357 356 359 355 355 355 355 351 347 346 344 343 344 346 347 344 337 337 336 336 336 333 331
366 368 367 368 369 359 349 348 338 341 349 354 356 361 359 357 357 356 355 354 353 354 357 352 349 346 345 344 342 340 339 339 340 342 340 340 337 335 334 334 333 332 328
364 364 365 363 364 362 354 350 348 341 339 338 341 345 345 342 341 341 342 343 345 347 347 345 343 342 340 338 338 338 337 338 339 340 337 332 334 333 332 330 330 329 327
362 363 363 362 362 364 358 353 347 345 336 332 333 335 336 337 337 338 338 338 337 336 337 337 337 336 334 334 334 334 335 337 338 338 338 335 335 334 332 332 329 329 327
356 354 354 359 359 359 359 358 352 342 335 331 331 332 334 336 337 336 336 336 336 336 336 336 335 335 335 334 333 333 332 333 334 335 336 335 334 334 332 329 327 325 325
353 352 352 350 351 351 349 347 345 344 338 337 336 335 337 338 336 336 337 335 335 335 336 336 337 336 336 334 333 333 333 332 334 335 335 334 332 331 329 328 327 326 325
348 348 348 346 346 345 345 345 344 340 338 336 334 335 335 337 336 335 335 336 335 335 335 336 336 336 334 334 333 334 335 334 333 334 333 332 330 330 329 327 327 326 325
346 344 343 341 340 340 339 339 339 337 335 334 332 333 335 335 335 335 335 336 337 337 336 336 336 335 335 335 334 333 333 334 334 333 333 331 330 330 330 328 326 324 323
334 334 332 332 333 332 332 331 331 331 330 329 329 330 329 329 331 334 335 335 335 337 337 336 336 335 334 333 333 333 333 333 333 333 333 331 330 329 328 326 326 325 322
328 328 328 328 328 328 328 327 325 324 323 322 322 322 322 322 322 322 323 324 330 335 335 335 334 333 333 333 332 332 332 332 331 331 332 330 328 328 328 324 321 319 316
322 321 321 320 320 319 319 318 318 317 316 315 314 313 313 313 313 314 315 314 315 314 315 319 326 331 333 332 331 331 330 329 329 329 328 326 324 324 323 322 320 317 314

GFSGL_925_thetae_057.txt.gz
Theta_e
349 349 349 349 348 349 349 348 347 347 346 346 346 344 347 349 351 353 354 355 353 353 353 353 352 350 345 341 341 341 341 337 334 336 336 337 339 339 339 338 337 338 336
349 350 349 349 349 350 349 349 348 346 347 345 344 348 350 353 353 353 354 354 355 353 352 354 355 353 351 347 341 341 340 340 338 336 337 336 336 339 339 338 338 337 337
348 350 350 350 349 350 351 351 350 349 348 347 348 350 352 351 352 354 354 354 354 355 352 351 352 355 354 352 352 350 343 339 339 339 337 338 337 336 337 337 337 337 337
348 349 351 352 351 350 349 349 350 351 351 351 349 347 347 351 355 356 354 355 355 354 354 353 352 352 353 353 352 352 351 348 344 339 339 340 340 339 337 337 338 338 338
350 350 350 351 352 352 352 351 350 349 349 349 350 351 350 348 347 350 356 356 355 354 353 353 353 352 348 350 352 352 353 352 349 346 341 339 340 340 339 339 338 337 337
351 351 351 351 352 353 353 353 353 351 350 350 349 348 350 351 350 346 349 355 357 355 354 353 353 353 352 350 351 352 354 353 350 346 345 342 341 339 339 339 338 337 336
352 352 352 353 352 353 354 355 355 355 353 352 351 351 351 350 350 350 348 351 354 355 355 355 355 354 354 353 353 352 352 354 354 353 347 346 345 342 341 338 339 338 338
352 353 354 355 355 354 355 356 357 357 356 356 354 354 353 352 351 351 351 352 353 355 355 356 356 355 355 355 355 355 355 354 354 354 353 352 349 349 344 343 341 339 339
351 353 354 355 356 357 357 357 358 358 359 359 358 357 356 356 356 355 355 356 356 356 356 356 356 356 357 357 357 356 356 356 356 357 357 357 356 355 351 343 338 337 338
351 353 354 356 357 357 358 359 359 359 360 360 361 361 361 359 359 359 358 357 356 356 357 358 358 358 358 358 358 357 356 356 356 356 357 357 357 356 354 348 341 339 338
347 349 354 356 357 358 359 359 360 361 361 362 362 362 362 362 362 362 361 361 359 358 358 358 358 358 359 359 359 358 358 359 358 358 356 355 354 353 354 354 352 342 341
348 348 349 350 355 358 359 360 361 361 362 362 362 362 363 363 363 363 363 363 363 361 361 361 361 361 361 360 359 359 359 358 358 357 357 357 356 354 353 352 353 350 344
355 353 351 351 352 353 356 359 360 361 360 361 362 361 362 362 363 363 363 364 364 363 363 363 363 363 362 362 362 361 359 357 355 351 352 352 353 353 353 353 348 346 344
353 359 358 358 358 357 356 357 358 360 360 361 362 362 362 363 363 364 364 364 364 365 365 364 363 363 363 363 363 363 362 361 357 354 352 350 348 346 346 346 346 343 337
351 350 351 360 360 359 360 361 360 360 361 361 362 362 363 364 365 365 365 365 365 365 366 361 357 358 358 361 363 362 359 355 352 351 347 345 343 343 344 344 342 339 334
351 351 354 357 360 363 360 357 358 361 362 363 363 363 364 364 364 365 365 366 366 365 361 357 356 355 355 356 356 355 353 351 349 345 342 340 339 339 340 338 337 336 332
351 352 353 357 359 361 356 352 345 349 357 361 364 364 365 366 366 366 366 364 364 364 358 359 356 357 356 355 353 352 349 346 341 339 337 337 339 337 335 335 334 335 331
335 346 350 353 356 359 358 355 351 347 345 349 357 363 365 366 366 365 363 359 356 355 355 354 354 352 351 351 348 345 341 338 335 337 337 338 336 336 332 331 332 332 329
334 343 348 351 353 353 357 357 352 348 347 348 347 351 356 358 358 356 356 353 351 350 350 349 349 349 347 345 340 336 335 334 334 335 336 337 334 334 332 332 330 329 327
334 342 346 350 351 351 353 354 350 347 345 342 341 344 344 344 344 344 344 342 340 340 342 343 341 339 337 334 333 333 332 333 333 334 335 335 333 333 331 330 331 328 328
337 343 346 349 348 350 352 352 349 344 341 339 340 340 342 342 339 338 336 336 335 335 335 335 335 334 334 334 333 332 332 331 331 332 331 331 332 332 332 331 330 330 328
337 342 345 347 348 349 353 355 349 341 338 337 337 336 336 336 335 335 334 334 334 335 335 335 336 335 335 334 333 332 331 331 331 331 331 333 332 330 331 332 329 328 328
336 341 343 345 345 346 347 345 339 337 335 335 335 334 334 334 333 333 333 333 334 333 334 334 334 334 334 334 334 333 332 332 331 331 332 332 331 331 331 331 330 327 326
334 337 341 342 341 339 338 335 333 332 331 331 331 330 331 330 331 331 332 333 334 334 333 333 332 333 332 332 333 332 333 333 332 332 333 333 333 332 330 329 328 327 327
328 329 330 330 330 328 328 326 325 325 324 323 323 324 323 321 319 322 323 324 324 325 325 325 327 328 329 328 329 331 331 332 332 332 332 332 331 330 330 329 327 326 325
311 312 313 312 312 313 313 313 311 311 310 311 310 310 310 309 309 311 310 312 312 311 312 312 311 312 315 318 321 328 331 331 331 331 330 331 332 332 329 329 329 329 328

GFSGL_925_thetae_060.txt.gz
Theta_e
346 346 347 347 346 346 346 346 346 345 345 344 345 345 344 344 345 347 350 354 354 353 351 351 352 352 349 345 345 343 341 340 335 337 337 337 336 336 337 338 339 338 337
346 347 347 347 347 347 347 346 346 346 346 343 344 345 345 345 344 347 349 351 353 354 354 352 351 350 351 352 351 349 343 342 339 337 338 339 339 338 336 336 338 339 339
347 347 347 348 347 347 347 347 347 346 346 346 345 346 344 343 346 349 352 352 352 353 353 354 353 351 350 350 352 352 350 348 345 341 339 338 338 339 339 338 337 336 337
347 348 348 348 348 347 347 347 347 347 347 347 346 345 344 344 347 350 350 351 353 353 353 353 353 353 352 351 350 350 352 352 351 349 344 341 340 339 337 338 338 338 338
346 348 348 348 348 348 348 348 348 348 348 347 347 347 346 345 346 347 350 353 354 355 353 353 353 353 352 351 352 350 348 351 350 348 346 345 343 342 341 342 339 338 338
346 346 348 349 348 348 348 348 348 349 349 349 349 349 348 347 346 346 346 346 348 351 355 355 353 353 352 351 351 352 352 350 350 349 348 348 347 345 345 343 341 339 340
347 347 347 348 349 350 350 350 349 348 348 348 349 350 349 348 346 345 346 348 348 347 348 352 355 355 354 353 353 353 353 353 352 353 351 350 348 348 346 344 341 341 341
349 348 348 349 349 350 351 351 351 351 350 350 349 349 349 349 347 346 345 348 349 350 349 349 350 351 352 352 352 353 354 354 354 354 354 353 352 352 351 350 348 344 340
349 349 350 350 350 350 351 352 352 353 353 352 352 351 351 351 351 351 351 350 350 351 352 352 352 352 352 353 354 354 355 355 356 356 357 357 357 357 355 350 347 341 341
350 350 351 351 352 352 351 352 353 354 354 355 354 354 353 353 354 354 353 352 351 352 352 353 353 354 355 355 356 355 355 356 356 356 357 357 358 358 357 357 352 345 344
348 350 351 352 352 353 354 354 354 355 356 357 357 357 357 357 357 358 358 356 354 354 354 355 356 356 357 357 357 357 356 358 357 357 357 357 357 357 355 355 356 352 345
346 349 350 351 353 354 354 355 356 357 357 358 359 359 360 360 360 361 361 361 360 356 357 357 357 358 359 360 359 359 359 359 357 355 355 356 356 356 356 354 353 351 350
345 346 349 352 353 354 356 356 357 358 359 359 360 360 360 361 361 361 362 362 362 361 360 360 360 360 361 361 361 361 360 358 356 352 352 353 353 352 351 348 346 344 345
351 348 347 347 349 353 356 357 358 358 359 359 360 360 360 360 360 361 361 362 362 362 362 361 361 361 361 361 361 362 361 362 362 355 352 351 350 349 345 343 342 343 340
350 353 358 357 355 353 352 353 356 357 358 358 358 359 360 360 360 361 361 362 363 363 363 360 356 357 356 357 359 361 362 361 357 355 353 350 348 343 341 339 340 340 336
349 350 354 356 358 359 357 357 357 357 357 358 359 360 360 360 361 361 362 363 364 364 361 356 355 355 355 355 355 355 355 354 354 352 349 345 341 340 339 337 337 336 334
333 342 348 351 355 357 355 352 349 353 357 359 360 360 361 362 362 363 364 364 364 364 358 358 357 358 358 356 355 355 354 353 352 348 343 338 337 335 335 333 332 333 333
320 331 342 347 349 352 355 356 353 352 348 350 352 356 361 362 363 364 364 364 362 361 360 357 355 357 356 355 353 352 349 347 343 339 337 336 336 334 331 331 332 332 331
319 323 334 343 346 350 350 352 353 352 350 350 349 350 354 360 362 363 364 363 361 358 357 356 354 352 351 350 349 347 344 340 336 334 336 336 334 334 332 332 331 331 330
317 321 328 339 345 348 348 350 350 350 349 347 346 347 346 345 348 352 352 352 351 351 351 350 348 347 346 345 342 338 335 333 333 334 335 334 335 333 330 330 330 327 327
321 323 327 334 343 346 347 347 350 348 347 346 345 347 350 348 345 347 347 344 342 340 340 340 340 339 336 334 333 332 332 331 331 331 333 332 333 331 331 329 330 328 327
324 327 332 337 339 343 346 347 350 348 346 342 341 342 342 342 342 340 338 337 335 334 334 334 334 334 334 334 333 332 331 331 331 332 329 330 330 330 330 329 329 328 326
324 326 331 336 338 340 343 345 346 347 346 342 340 338 337 336 336 334 333 332 332 333 333 334 334 334 333 333 333 332 332 331 331 330 330 330 329 329 330 329 329 328 326
325 328 330 333 335 338 339 338 337 335 334 334 334 333 333 332 331 330 330 329 331 331 332 332 332 333 332 332 332 332 332 331 331 331 332 331 331 329 330 329 328 327 326
317 320 324 328 327 326 325 323 322 320 319 317 316 318 321 323 323 324 325 326 326 327 326 329 327 328 328 328 329 329 330 331 331 332 331 332 332 331 330 329 328 326 325
307 307 306 307 308 308 308 307 307 307 306 307 308 307 307 306 306 305 305 309 314 316 317 319 320 318 318 318 319 320 328 330 331 331 330 331 332 330 329 328 328 327 326

GFSGL_925_thetae_063.txt.gz
Theta_e
348 347 348 348 348 348 348 348 346 343 345 344 341 342 343 345 346 346 346 352 356 357 356 356 355 352 353 353 350 347 346 344 343 341 343 342 340 339 339 338 336 337 338
349 348 348 348 349 349 349 349 348 345 344 345 344 343 344 346 347 350 350 352 354 355 357 358 357 356 356 354 353 353 352 350 346 345 341 342 342 342 339 338 339 341 339
349 349 349 349 349 349 349 349 349 347 344 345 345 344 342 344 349 352 351 352 354 355 356 357 357 358 358 356 355 353 352 352 350 348 347 346 346 344 343 342 340 340 339
349 349 350 350 350 349 349 349 350 348 346 345 345 345 343 344 348 350 352 354 355 356 357 357 357 358 358 358 357 357 356 354 352 352 349 348 349 348 347 345 344 344 344
349 349 350 350 350 350 350 350 350 350 348 346 346 346 347 348 347 350 351 354 356 356 355 356 356 356 353 354 356 356 356 356 354 351 350 349 348 348 348 347 347 348 347
350 350 350 351 351 351 350 351 350 350 349 349 350 349 351 350 347 345 344 351 354 356 356 357 356 354 353 352 352 352 353 357 357 356 354 353 355 354 353 352 352 351 352
350 351 351 352 352 351 351 351 352 352 352 351 351 351 350 350 347 346 343 345 349 351 352 352 353 352 353 354 356 353 353 353 352 353 356 357 357 356 356 356 356 356 355
350 350 351 352 352 352 352 351 351 352 352 353 354 354 353 352 348 346 346 346 349 350 351 351 351 350 351 352 354 355 355 355 354 352 352 353 355 356 357 357 357 355 352
351 351 351 352 352 353 353 353 352 352 352 351 352 352 353 352 350 347 348 349 350 352 352 352 352 353 352 351 353 353 354 355 355 356 356 355 355 356 356 354 351 350 350
352 352 351 351 352 353 354 354 354 354 354 354 354 353 353 351 350 348 348 350 351 352 353 354 353 352 353 352 352 354 356 357 358 359 360 359 359 358 357 357 356 349 350
352 352 352 352 353 353 353 354 355 355 355 356 356 356 356 355 353 351 351 351 353 354 355 355 356 355 354 353 353 354 357 358 360 360 360 359 359 358 359 358 357 355 351
353 353 354 354 353 354 355 355 355 356 357 357 358 358 358 359 357 356 355 355 354 356 358 359 360 358 357 358 357 357 357 357 357 358 357 357 356 357 357 356 355 352 348
353 354 355 355 355 355 357 357 358 358 357 358 359 359 359 360 362 361 359 359 359 357 359 361 361 360 359 359 360 360 360 358 355 352 353 356 356 355 355 352 349 345 344
352 353 355 356 356 356 357 357 357 358 359 359 360 360 360 361 362 363 361 360 360 360 360 358 358 358 359 359 360 360 360 360 358 355 355 355 354 353 350 347 347 346 342
353 352 352 353 355 357 357 357 358 358 359 359 360 361 361 362 362 362 363 363 360 358 359 355 354 355 355 355 357 359 359 361 360 359 354 352 351 349 345 344 342 339 341
352 357 357 358 357 355 355 354 355 357 358 359 359 360 361 361 361 360 359 360 360 361 359 358 356 356 357 358 357 356 355 355 356 355 353 352 350 345 341 339 341 340 339
333 343 351 354 358 358 358 357 357 352 354 355 356 357 358 359 360 360 361 361 361 361 358 358 359 360 359 357 357 356 355 355 352 351 351 348 344 343 338 340 338 338 338
325 328 344 350 353 357 356 356 356 357 358 357 355 357 358 358 359 360 361 362 360 358 356 357 360 359 360 357 357 355 354 352 350 348 345 344 341 339 336 337 336 335 337
323 323 330 340 348 351 354 356 355 354 355 357 351 354 356 355 357 360 360 361 361 361 358 357 358 357 355 354 351 351 349 348 345 341 339 340 337 337 337 336 335 334 334
323 323 324 330 341 348 351 353 353 354 355 356 357 355 350 349 349 354 357 359 358 361 361 358 353 353 350 348 347 345 343 341 341 340 337 339 339 338 337 335 334 334 332
322 324 324 326 332 341 348 350 351 352 352 354 354 353 348 348 351 350 350 350 355 356 352 351 350 348 346 345 343 340 339 338 335 335 336 337 337 336 335 333 332 333 332
321 323 325 326 329 335 342 347 350 350 349 349 352 350 344 344 352 352 351 350 348 346 345 347 343 339 338 336 336 335 336 336 334 333 333 334 334 333 332 332 332 332 333
321 324 327 327 329 334 337 339 345 349 348 347 347 347 338 341 348 348 346 343 339 336 337 338 338 337 336 336 336 336 335 335 334 333 333 333 332 332 332 331 332 333 333
319 323 327 330 330 332 333 336 343 337 341 339 338 337 336 337 335 330 328 326 324 323 324 326 326 327 331 332 332 332 332 332 333 333 333 331 332 330 331 331 333 333 333
310 310 312 313 317 322 325 324 321 320 320 319 319 319 322 323 322 320 319 318 318 319 317 314 313 314 323 327 330 331 332 332 331 331 330 332 332 330 330 331 333 333 333
303 303 303 303 302 303 304 305 304 305 305 304 305 307 308 307 309 309 309 309 307 307 305 304 305 306 309 311 314 319 326 329 330 331 331 331 331 333 333 333 333 333 332

GFSGL_925_thetae_069.txt.gz
Theta_e
358 358 356 355 355 351 352 354 354 354 354 353 353 354 352 352 353 355 355 354 356 356 356 355 355 354 353 350 350 350 347 346 347 345 344 343 346 349 348 349 349 349 348
358 358 357 357 355 354 349 353 355 357 357 356 356 354 354 350 353 355 356 353 355 355 355 355 355 353 356 355 354 351 350 351 350 353 350 350 349 349 348 348 350 352 350
358 358 358 359 357 355 356 354 355 356 358 357 357 357 356 352 351 354 356 356 353 354 354 355 355 356 358 357 359 355 354 355 355 356 355 352 349 348 347 349 351 354 353
355 355 357 359 358 357 357 357 356 357 359 358 358 358 357 355 352 351 354 356 355 353 352 354 355 356 358 360 360 360 359 358 355 354 353 352 350 349 348 349 350 349 349
355 355 357 359 359 359 357 357 357 358 359 359 360 359 358 357 353 351 352 354 356 356 353 354 355 356 356 358 357 357 359 358 355 353 352 350 349 349 352 352 352 354 353
356 357 357 359 360 361 358 358 359 359 359 360 360 360 359 356 351 349 349 350 352 355 357 357 356 356 357 357 358 357 355 356 362 357 353 352 354 354 354 356 357 357 359
359 358 359 361 362 361 359 359 360 361 361 361 361 361 361 359 352 350 347 348 350 351 354 356 357 351 353 357 358 357 357 356 355 354 358 359 358 358 360 361 358 359 361
359 362 360 362 363 363 362 361 362 362 361 362 362 362 362 361 357 352 350 347 348 349 351 354 356 354 352 354 356 357 357 358 358 357 356 356 358 358 359 360 360 360 360
362 362 362 362 364 365 365 364 363 363 363 363 363 363 363 362 358 355 354 351 351 352 353 352 352 353 355 356 355 354 353 353 347 347 348 350 352 353 353 354 358 360 360
363 362 363 363 364 366 365 365 364 364 363 360 362 363 363 364 361 358 355 354 352 352 353 355 354 354 354 355 355 356 358 358 356 355 356 358 360 361 362 361 360 362 362
360 361 363 363 364 365 366 365 365 364 361 363 363 363 363 362 363 361 357 355 353 351 350 348 350 351 352 351 351 354 357 359 359 359 360 362 363 363 365 365 364 363 362
360 361 363 364 363 363 365 366 366 365 365 366 364 364 361 362 361 362 361 359 356 354 351 346 346 347 349 351 353 354 355 355 356 357 359 360 361 363 364 361 362 363 362
362 362 363 364 364 362 365 366 365 366 361 362 362 360 357 356 360 359 358 358 357 356 354 350 349 350 355 360 359 357 358 357 358 360 361 361 361 362 362 363 363 360 358
362 363 363 364 364 363 363 364 362 361 362 359 359 357 356 354 353 357 359 358 357 356 355 353 353 356 360 361 363 363 361 360 362 362 363 363 363 363 364 364 361 357 354
362 362 363 362 362 362 361 361 361 360 360 360 356 355 353 355 355 356 360 363 359 357 357 357 357 357 358 360 362 363 362 363 365 363 363 363 364 364 363 360 358 354 355
361 361 361 361 362 361 361 359 359 358 358 358 358 358 361 357 358 360 360 363 365 364 358 360 361 361 363 362 363 360 362 363 363 365 364 362 360 359 358 356 355 353 354
357 362 361 361 362 361 361 361 361 357 357 358 358 359 359 360 360 361 362 362 363 363 364 365 363 362 364 362 362 363 364 363 363 363 363 360 359 357 355 354 352 353 352
338 348 359 359 361 359 360 360 361 360 359 358 357 357 357 357 358 358 358 360 361 360 361 363 363 365 365 363 364 364 365 363 365 364 360 359 358 356 355 352 352 353 354
326 328 336 348 363 362 362 361 358 357 355 352 356 357 356 355 353 354 355 356 359 362 363 362 362 363 363 364 364 364 363 363 364 363 361 359 356 355 353 353 354 353 347
331 322 328 336 343 351 352 351 350 349 347 347 351 355 352 353 352 352 352 354 356 358 358 358 358 360 360 364 364 364 363 361 360 358 357 357 356 356 354 353 352 349 345
328 329 325 324 331 331 339 350 346 345 347 347 347 349 350 354 357 355 358 357 357 359 360 360 363 364 362 365 363 362 360 359 358 357 355 354 353 353 353 350 347 344 343
326 326 328 329 329 329 332 342 345 345 345 346 347 352 356 357 357 355 355 356 359 359 360 361 363 363 360 359 358 357 356 355 354 353 351 350 350 348 346 346 345 343 342
322 326 329 331 331 331 331 335 343 341 343 344 345 347 349 347 349 347 348 351 355 354 353 352 351 354 352 352 351 351 350 349 344 345 345 345 344 343 343 342 342 341 341
314 316 318 319 319 327 324 329 331 329 329 330 328 330 330 332 330 328 326 327 332 333 333 331 328 323 324 328 331 335 333 338 340 338 342 342 342 340 340 339 339 337 336
304 304 305 307 309 310 311 309 311 313 313 311 311 311 311 310 311 311 313 314 316 314 316 316 314 310 312 318 321 322 324 326 329 334 333 336 338 338 338 337 336 335 336
299 299 299 299 299 300 300 300 300 300 299 300 299 300 301 301 301 301 301 302 302 301 303 303 303 304 306 307 307 308 310 319 327 330 331 330 332 335 335 335 334 334 335

GFSGL_925_thetae_072.txt.gz
Theta_e
358 356 355 353 350 347 350 345 353 351 356 351 354 353 356 354 356 355 353 356 355 354 353 357 352 350 351 354 354 351 349 348 351 347 347 347 347 349 348 346 346 346 349
360 359 356 357 354 352 346 350 356 351 350 357 352 356 354 355 355 355 356 355 357 355 351 353 358 358 354 348 349 352 353 354 354 356 353 351 348 351 351 350 351 350 350
362 361 359 357 358 356 350 352 354 356 358 354 359 353 357 355 354 354 357 354 356 357 358 358 353 356 355 358 357 352 352 354 352 352 354 357 357 351 349 349 348 349 350
361 361 361 360 358 357 357 350 356 355 356 359 358 359 358 358 355 354 358 358 357 358 357 354 355 356 357 358 356 355 355 355 354 357 356 355 355 353 352 355 354 352 352
358 361 361 361 360 359 358 357 350 357 359 360 360 360 360 360 359 356 354 357 358 358 357 355 355 357 357 357 359 361 360 360 361 360 360 357 353 351 352 352 356 359 359
357 360 360 361 361 361 359 358 357 354 358 361 361 361 362 361 359 355 354 354 358 358 358 356 357 355 354 355 356 358 357 358 358 359 360 359 357 356 357 358 358 357 359
358 359 359 360 361 361 360 359 361 359 359 361 362 362 363 362 358 354 353 352 353 354 357 357 358 357 354 355 355 355 355 355 355 355 356 356 357 355 355 359 360 360 362
359 360 359 360 361 362 361 361 360 361 360 361 362 362 363 363 360 355 353 351 351 352 352 353 355 357 353 354 357 359 360 358 357 356 355 355 355 356 354 355 357 360 359
362 360 360 360 361 363 363 363 361 362 362 362 362 364 364 363 362 359 355 354 349 350 349 348 353 357 357 353 347 346 347 348 350 351 350 349 349 350 354 357 358 355 357
360 362 363 361 362 364 364 363 362 362 362 362 363 363 364 364 363 362 360 357 354 352 352 351 351 351 346 348 353 355 358 357 357 357 357 356 358 359 360 360 357 354 360
361 362 361 365 363 365 365 365 364 364 363 363 363 364 365 365 365 364 360 359 357 356 355 355 355 354 352 350 351 353 354 354 357 359 360 359 360 363 363 363 364 364 362
364 361 365 364 365 366 366 367 366 366 366 365 365 364 365 365 365 364 364 361 358 357 356 355 353 351 350 349 349 350 351 351 355 356 357 358 359 361 362 363 363 364 362
366 363 365 365 366 365 366 367 368 367 367 366 366 365 366 365 366 365 363 362 361 359 357 356 355 352 350 350 352 352 351 352 352 355 359 360 362 362 361 361 363 362 361
366 364 366 367 366 365 366 367 368 367 367 366 365 366 365 363 363 365 364 362 361 361 360 359 357 355 354 356 360 361 360 357 357 361 362 363 363 364 364 364 364 364 362
366 365 366 366 366 366 364 366 367 366 366 365 365 363 364 363 360 358 362 360 359 358 358 356 356 356 354 353 357 361 364 363 362 362 362 363 364 365 365 365 364 363 360
366 366 365 365 365 366 364 365 366 366 364 364 362 363 360 357 357 356 353 359 358 358 355 358 360 359 360 360 360 361 364 365 363 364 365 366 366 365 362 361 359 359 356
342 346 362 363 364 364 364 366 362 356 360 360 361 360 359 358 360 361 358 356 362 362 360 360 362 363 364 364 366 365 363 361 360 362 364 364 363 360 359 358 357 356 354
328 333 340 350 362 364 364 363 363 359 358 356 357 357 358 359 360 360 361 361 362 363 364 367 368 367 366 366 364 363 362 361 363 365 365 363 361 359 357 356 355 354 354
329 326 328 337 347 361 364 363 363 363 362 362 361 356 356 356 356 357 358 360 363 364 364 363 363 363 364 365 366 365 365 365 362 363 364 362 361 359 358 356 354 354 353
329 328 325 333 337 338 346 357 355 353 352 352 352 355 357 354 350 351 351 353 356 359 360 362 363 364 364 364 363 363 364 365 364 362 361 360 357 356 356 357 356 355 355
325 332 329 331 329 335 336 346 350 350 349 343 342 342 353 353 355 357 354 354 352 353 358 359 358 361 362 361 361 360 360 361 360 361 359 357 357 355 354 354 355 353 349
322 326 331 330 332 335 333 336 344 344 342 340 347 349 350 351 352 342 341 346 345 341 344 357 353 351 351 352 357 357 359 358 358 357 356 355 354 353 353 351 349 351 348
314 318 319 319 322 324 329 327 322 326 327 326 327 329 331 330 327 325 323 324 327 323 322 328 339 336 337 334 334 331 338 338 340 342 341 349 350 347 346 346 345 344 343
308 309 309 309 308 312 312 313 313 313 313 314 315 314 314 313 313 313 312 313 318 319 318 314 318 321 324 326 327 326 326 329 332 334 337 340 342 344 343 341 341 341 340
302 302 301 302 303 302 302 303 303 304 304 303 302 303 303 304 306 302 303 307 310 312 311 311 312 312 314 315 315 315 315 320 325 329 332 334 335 335 337 338 338 338 338
299 298 298 298 298 298 298 298 297 297 297 297 297 297 298 298 297 297 299 302 302 302 303 303 303 305 305 305 305 308 310 312 315 318 325 326 328 330 332 333 336 336 336

GFSGL_925_thetae_075.txt.gz
Theta_e
352 352 346 346 352 349 348 348 351 349 350 349 354 351 355 353 354 355 355 353 353 351 351 353 355 351 346 349 354 352 350 348 348 346 346 346 346 347 346 347 347 348 348
352 354 353 346 348 351 352 346 350 350 350 357 354 352 354 355 355 355 354 353 355 354 353 352 354 356 352 353 350 349 351 353 353 351 350 349 349 356 355 354 352 351 351
355 353 355 353 346 350 349 348 345 347 348 350 357 356 356 355 353 353 355 353 353 356 355 354 352 355 358 355 353 353 352 351 359 359 358 357 357 353 351 353 355 353 351
356 355 354 355 354 347 347 346 349 344 346 348 351 356 354 354 353 353 354 353 352 351 357 357 356 357 354 353 354 355 357 356 355 354 355 357 357 355 356 355 354 355 357
357 358 357 355 355 356 352 351 344 352 349 353 353 353 357 355 356 354 353 353 354 353 352 355 357 354 352 353 354 356 358 358 359 359 360 360 359 357 355 353 356 355 350
360 360 359 359 357 356 357 356 353 348 355 352 356 358 355 357 356 356 354 353 356 356 354 353 355 357 355 353 355 356 356 357 360 362 362 359 356 352 349 351 352 354 358
356 360 360 360 360 358 357 357 357 353 352 358 355 357 358 357 357 358 358 355 353 353 356 354 353 353 355 356 356 355 355 355 356 355 355 355 354 352 352 353 354 355 357
356 358 360 360 360 360 359 358 358 357 353 352 359 360 359 359 357 358 359 357 355 353 352 356 357 355 352 353 355 355 353 352 352 353 354 354 355 355 356 352 353 357 358
357 357 360 361 360 360 360 359 358 358 358 354 355 359 361 360 360 359 359 357 354 354 352 350 350 350 352 354 354 354 357 358 360 360 360 357 352 350 352 353 356 359 358
358 359 359 360 360 361 360 360 359 358 359 360 358 359 361 361 360 360 360 359 357 353 351 351 351 350 351 352 356 356 355 355 352 351 352 352 355 356 358 360 358 356 355
359 359 360 360 360 360 361 360 360 360 359 359 360 360 360 361 361 360 360 361 358 355 353 352 351 349 349 348 348 348 349 346 349 351 353 356 359 358 358 360 362 361 358
362 361 361 361 360 361 361 362 361 361 361 360 360 361 361 362 362 362 360 359 360 358 356 354 353 352 352 351 350 352 351 351 353 354 356 357 356 354 358 358 360 363 363
348 362 362 363 361 362 362 363 362 362 361 361 361 361 361 361 363 364 362 361 360 361 358 356 355 355 355 354 352 350 351 353 353 351 352 352 353 356 359 362 361 361 363
343 362 360 363 365 362 364 364 364 364 363 363 363 362 362 362 363 364 364 364 363 363 363 360 357 356 355 354 354 354 354 353 352 351 351 353 357 362 363 362 363 363 364
337 364 363 363 365 365 365 365 365 365 365 365 364 363 362 363 361 363 365 365 364 363 362 359 356 357 357 357 356 355 353 355 358 357 356 359 361 361 362 363 365 364 363
334 354 363 366 366 365 364 365 365 365 365 365 365 364 363 363 364 362 362 364 362 361 359 356 355 356 356 355 355 354 353 355 360 361 361 363 363 363 364 363 360 359 359
329 330 347 362 366 365 364 363 361 364 366 365 365 364 364 363 361 361 362 359 358 362 356 354 356 356 356 356 357 357 356 356 357 364 364 362 364 365 363 359 358 356 356
331 328 333 343 350 359 364 364 362 361 359 359 364 364 364 362 359 357 357 356 353 355 355 355 356 358 359 360 361 361 364 364 364 362 360 361 362 362 360 357 357 357 355
325 330 331 336 341 350 357 363 363 362 359 358 355 354 358 358 359 360 360 361 355 353 357 360 361 361 363 364 365 365 364 363 362 361 362 364 365 363 361 357 357 357 356
325 330 330 334 338 343 350 358 361 360 357 357 353 351 352 353 353 353 354 356 356 357 357 358 357 356 356 359 361 362 363 365 364 363 363 362 361 360 359 356 355 355 355
322 325 333 335 337 335 337 346 349 348 344 343 341 345 347 349 345 342 346 348 349 344 346 351 353 351 351 349 349 353 356 357 360 362 361 360 358 356 355 354 354 354 355
315 317 317 322 329 325 324 328 329 329 330 330 326 328 333 329 325 325 326 330 329 331 333 329 332 343 347 348 341 339 343 332 342 348 352 356 357 356 355 354 353 352 350
309 310 311 311 312 314 315 314 317 318 318 317 317 318 322 317 315 312 314 314 317 320 318 323 325 325 332 336 337 330 322 323 325 327 335 338 341 345 348 348 347 347 345
302 303 305 304 304 305 306 305 306 305 306 306 308 309 306 310 312 307 309 309 310 314 314 310 315 317 317 323 326 324 319 321 327 328 329 331 334 337 338 338 338 340 340
299 299 299 299 299 299 300 300 300 301 300 300 300 299 300 301 300 301 301 302 304 305 307 307 305 308 310 311 311 311 313 315 320 325 326 327 328 330 331 332 334 336 336
298 297 297 297 296 297 297 296 296 297 296 297 299 299 298 298 298 299 300 300 300 299 298 298 298 300 302 302 304 308 309 311 313 315 318 320 320 321 322 322 324 325 327

GFSGL_925_thetae_078.txt.gz
Theta_e
348 346 345 344 346 345 344 345 351 353 350 351 351 349 352 351 351 352 351 352 352 351 351 351 349 350 347 350 350 353 352 351 347 347 346 346 348 349 352 355 354 353 352
349 348 346 344 344 346 345 343 345 353 352 349 349 351 351 351 352 352 353 353 353 353 353 351 350 353 353 353 352 350 349 350 353 352 350 350 353 354 354 351 353 355 351
349 349 349 345 343 345 347 344 344 347 352 353 352 350 352 351 352 352 352 352 353 352 353 354 353 351 352 355 355 354 352 352 354 358 358 357 355 352 355 356 355 351 346
350 350 350 349 345 343 346 347 347 346 349 351 353 354 352 350 352 353 353 354 353 352 352 352 355 354 351 352 353 353 353 354 357 356 354 354 355 356 359 357 356 350 346
351 350 350 351 349 345 343 347 344 348 346 348 350 354 355 353 353 353 351 350 351 351 350 350 354 357 356 355 355 353 352 353 355 357 358 358 358 358 360 359 352 350 351
352 352 351 351 352 351 345 344 345 343 346 345 344 349 354 356 355 354 352 352 351 351 350 349 350 351 355 356 355 354 352 353 354 357 357 357 358 359 354 352 352 353 353
354 354 354 351 353 353 353 348 346 345 343 348 349 345 349 352 355 355 354 354 352 351 351 352 351 350 351 352 355 356 355 354 354 356 357 357 356 354 353 353 353 354 353
350 355 355 356 354 354 353 354 352 350 347 346 349 351 353 355 355 355 355 355 355 354 353 351 351 349 350 351 351 351 352 353 353 353 353 353 354 353 355 356 355 353 355
352 354 358 357 357 356 355 355 355 355 352 349 350 354 353 353 353 353 353 355 357 358 356 355 353 351 349 351 354 354 353 351 348 352 355 357 358 359 354 353 354 354 354
346 347 353 359 358 358 358 356 356 356 355 353 351 351 355 357 357 356 356 356 357 357 357 356 355 354 352 350 351 350 353 352 351 348 348 349 351 353 353 355 356 354 354
338 345 346 355 358 358 359 358 358 357 356 356 355 353 351 353 355 356 357 358 357 355 354 353 354 353 352 351 351 350 351 348 349 351 350 349 348 351 354 357 358 358 357
336 341 348 356 358 359 359 359 358 358 357 357 357 357 356 356 357 358 358 358 358 357 355 353 352 351 349 350 350 350 349 349 349 349 349 350 351 352 352 353 354 358 359
330 337 345 357 358 358 359 359 358 358 358 357 357 357 358 358 358 358 358 359 359 360 358 356 355 354 353 353 352 352 351 351 352 349 349 351 352 351 351 352 359 360 361
329 335 339 353 359 358 359 359 359 358 359 359 358 358 358 358 359 359 360 360 360 360 361 359 358 358 357 355 354 354 353 351 350 349 349 349 350 350 351 358 361 362 362
327 331 334 355 360 359 359 359 360 360 359 360 359 359 359 359 359 359 360 361 361 361 361 359 357 357 357 356 355 354 353 354 354 354 354 352 352 353 357 360 361 362 363
324 330 330 338 359 362 360 361 361 361 360 360 360 360 360 360 360 360 360 361 361 361 359 356 355 356 355 355 355 355 355 355 355 355 353 352 355 356 359 361 361 363 363
321 327 329 334 346 362 362 363 361 362 363 362 362 361 361 362 362 361 361 361 361 362 358 356 356 355 355 355 355 355 354 354 354 353 352 353 356 359 362 362 361 360 356
320 326 329 330 339 346 362 362 361 361 360 361 364 364 364 363 363 362 362 361 359 358 355 357 357 357 356 355 355 355 356 356 355 355 355 356 358 362 362 363 359 357 356
320 324 327 331 336 342 349 358 362 360 359 361 359 362 364 364 364 362 360 357 355 351 349 353 354 354 355 355 356 357 359 359 360 359 360 360 362 360 360 361 359 357 356
320 323 329 333 336 339 345 353 358 359 359 358 353 352 351 349 353 356 355 353 353 355 354 353 355 357 357 355 354 354 355 355 355 351 347 347 350 354 356 357 357 356 356
316 318 319 325 324 327 334 340 348 351 344 341 341 344 345 350 346 344 342 340 340 340 338 337 333 334 336 342 339 338 338 338 345 334 333 337 336 346 352 353 354 353 353
313 312 312 314 314 315 319 324 325 327 326 323 321 330 329 326 324 321 324 326 326 327 324 326 325 322 319 322 330 336 333 336 336 336 338 338 338 344 345 353 353 352 351
308 308 307 308 309 309 310 309 313 312 312 313 313 313 315 313 312 311 311 311 316 319 318 320 321 320 321 321 320 322 326 326 330 331 330 330 334 337 341 338 338 341 342
302 303 302 302 303 303 304 305 305 305 306 305 304 304 304 303 302 303 309 309 311 312 313 313 312 312 314 316 319 318 319 324 326 324 327 330 331 333 334 336 336 336 336
299 298 298 299 299 299 298 299 300 299 300 301 301 303 301 300 298 296 297 301 302 304 304 308 306 304 305 305 306 309 310 313 316 318 323 324 326 326 326 327 327 328 328
297 297 297 296 296 296 297 296 296 296 297 296 296 297 297 296 298 301 300 296 297 296 296 297 300 302 303 300 301 304 307 308 309 312 314 316 316 316 316 317 318 319 319

GFSGL_925_thetae_084.txt.gz
Theta_e
345 345 345 344 343 343 342 343 345 346 347 349 350 350 350 352 352 352 348 349 349 350 349 349 349 348 347 347 347 348 349 350 347 349 349 349 349 352 350 349 348 352 353
344 345 345 344 344 344 342 340 341 345 345 348 351 351 350 350 351 352 351 347 347 349 349 350 349 350 349 349 352 352 350 350 348 348 350 351 352 350 350 350 348 348 349
344 344 345 345 345 344 343 342 340 342 344 344 345 351 351 349 350 351 352 350 349 349 349 351 350 352 351 350 350 350 352 353 352 351 352 352 351 350 351 349 347 348 350
344 344 344 345 345 345 344 342 340 338 342 343 344 345 352 351 350 350 350 351 351 350 349 350 350 350 350 351 353 352 350 351 352 352 352 351 351 350 351 352 351 351 351
345 345 344 344 343 343 344 344 342 340 337 340 343 344 347 351 351 350 350 350 351 350 350 350 350 349 349 349 350 353 354 354 355 354 352 351 352 352 352 352 352 352 352
345 345 345 344 344 343 343 343 343 343 341 337 340 342 344 345 350 350 351 351 351 350 350 350 350 349 349 348 347 348 350 354 355 355 353 352 353 353 353 353 352 351 353
343 344 346 346 345 344 343 343 343 343 343 342 339 340 341 343 344 348 349 351 351 350 350 350 350 350 349 348 347 346 347 347 349 352 353 354 354 353 351 351 352 352 352
344 346 345 346 346 346 345 344 343 343 343 344 343 340 339 339 340 343 347 349 352 352 351 351 351 351 351 350 350 349 349 348 346 348 349 348 348 348 349 351 351 351 350
336 343 348 347 347 347 347 347 345 343 343 344 344 344 343 339 336 336 342 346 349 351 352 352 351 352 351 350 351 351 351 349 348 347 348 348 348 346 347 349 349 349 351
329 332 335 340 342 348 348 349 349 347 344 343 343 343 344 344 343 341 339 342 347 347 347 347 345 349 349 349 350 350 352 350 350 350 349 349 349 348 348 349 349 350 350
328 330 333 337 337 340 349 350 349 349 348 347 345 345 344 344 344 345 344 345 346 346 346 347 345 340 343 345 348 350 350 346 350 351 351 350 350 349 349 349 348 348 349
327 330 331 333 336 337 342 351 350 350 350 350 350 349 348 348 347 347 346 346 348 349 348 349 348 345 342 345 348 346 348 349 351 351 350 349 348 348 348 348 349 350 350
322 325 329 333 333 335 336 341 352 353 352 352 352 352 352 351 350 350 351 351 350 349 350 350 350 349 348 350 350 351 351 350 349 347 348 349 349 349 349 350 349 348 348
318 320 325 327 330 333 335 339 348 354 354 353 353 354 354 353 353 352 351 350 351 352 352 352 353 353 353 353 354 354 354 353 351 351 351 352 351 351 351 349 348 349 348
316 318 321 323 325 331 333 337 342 355 355 355 355 355 355 354 354 354 354 354 353 352 352 351 352 353 353 353 353 355 355 355 354 354 352 352 352 351 352 351 350 350 350
313 315 316 320 323 327 331 334 344 351 356 356 356 356 355 355 355 355 355 355 355 355 350 350 351 352 353 352 351 353 352 352 353 353 351 351 350 349 350 349 350 350 352
310 312 315 318 320 325 328 332 337 341 352 356 357 356 356 356 355 355 355 355 356 355 352 351 353 354 352 352 352 353 353 352 353 351 352 351 350 350 349 349 350 351 354
308 311 313 317 321 324 325 332 337 339 342 355 357 357 357 357 356 356 357 356 354 353 351 354 355 354 353 352 354 355 355 354 353 354 353 353 352 351 350 349 349 354 357
306 309 312 317 319 321 325 329 333 338 342 348 357 357 357 357 357 356 356 355 352 350 350 352 354 356 355 353 353 354 354 354 355 355 354 353 353 351 352 353 354 356 356
306 308 311 314 317 321 323 324 328 333 338 347 352 356 356 353 351 352 352 351 351 354 353 349 350 353 353 354 354 354 354 354 353 353 353 354 354 354 354 355 354 352 350
305 306 309 312 314 316 317 319 321 325 332 334 337 342 346 349 345 346 344 340 342 345 344 344 344 344 345 346 346 347 349 349 349 350 350 351 348 349 349 347 346 344 344
304 305 307 309 309 310 311 313 315 318 321 323 321 325 331 336 333 330 328 326 323 323 327 329 324 317 317 327 332 334 335 336 338 338 338 337 337 337 338 339 340 340 340
302 303 305 305 304 305 307 308 309 310 311 313 313 314 316 316 315 314 313 312 314 314 314 324 333 336 329 318 323 321 323 328 331 330 329 328 329 331 332 334 335 338 340
299 300 300 301 301 301 302 302 303 304 304 304 305 304 303 304 304 304 303 303 305 306 306 308 310 314 312 314 316 318 318 315 316 320 323 324 324 325 326 326 326 327 329
297 297 297 297 298 298 299 299 299 299 300 300 299 299 299 299 298 298 299 300 302 304 302 302 303 303 304 306 308 309 312 316 318 317 316 318 319 318 315 315 318 316 319
296 296 296 296 296 296 296 297 297 297 296 296 296 296 296 296 296 296 295 296 296 297 298 298 300 301 302 304 303 307 308 311 312 312 312 312 311 312 313 312 310 308 309

GFSGL_925_thetae_087.txt.gz
Theta_e
349 349 348 348 347 344 346 344 347 346 345 346 349 350 350 349 351 352 351 354 351 349 353 354 354 353 351 351 351 351 352 351 351 349 352 352 351 356 354 350 352 352 350
347 348 349 348 347 347 345 344 345 346 346 346 347 349 352 353 351 352 355 353 353 354 354 354 353 352 354 354 353 355 353 354 353 353 353 353 355 356 355 355 353 350 355
347 348 348 349 348 347 347 345 344 343 346 347 347 350 352 354 354 351 354 355 354 353 353 354 354 354 354 353 354 353 352 355 356 355 354 353 354 353 353 352 354 355 352
347 347 348 349 348 348 346 346 344 343 345 347 346 346 348 350 355 354 355 355 355 354 354 354 353 354 355 356 355 356 356 355 355 356 354 353 352 353 354 353 351 350 352
348 347 347 348 349 349 348 347 346 344 343 342 346 348 349 351 353 354 355 354 355 355 355 355 354 353 350 351 352 353 356 357 355 354 353 351 350 350 350 351 352 350 351
348 347 348 348 348 347 348 348 348 348 347 345 345 345 348 349 350 351 352 355 355 355 356 356 354 350 348 348 348 348 350 355 356 353 350 349 353 354 351 353 350 351 351
348 348 348 349 348 347 347 346 347 347 348 348 347 346 344 345 347 346 348 353 355 356 355 356 355 353 351 352 351 348 348 348 347 349 352 352 352 353 354 355 352 353 352
347 347 347 349 349 348 347 347 345 346 347 348 348 347 346 344 339 342 343 345 354 356 356 356 355 354 355 352 354 355 355 354 352 349 349 351 352 354 354 354 355 354 353
339 341 344 348 349 350 349 349 348 346 347 347 348 348 348 346 344 336 338 346 350 354 355 355 355 354 351 349 351 355 355 353 351 350 348 348 347 347 348 351 351 351 349
330 333 337 342 346 349 350 351 351 349 347 347 347 348 349 347 346 344 340 342 344 347 350 353 352 351 351 348 347 353 354 352 351 351 353 350 349 348 349 349 351 351 351
327 330 332 335 339 341 343 348 349 350 349 348 348 348 348 348 348 346 345 344 346 345 344 344 346 347 344 344 341 346 350 349 351 353 352 351 352 353 353 352 350 352 352
320 327 332 332 335 339 340 343 345 350 350 350 350 350 350 349 347 346 345 345 346 348 349 349 348 345 344 343 341 337 339 345 351 350 351 349 349 350 351 352 354 353 352
317 319 324 329 333 336 337 341 344 344 350 350 351 351 353 353 352 350 347 348 346 346 349 351 351 351 349 347 347 345 345 348 349 351 351 348 348 350 352 353 353 354 353
315 316 317 323 327 329 332 337 340 345 347 351 351 352 352 354 355 355 351 348 348 347 346 349 350 350 350 350 350 350 350 350 350 351 350 349 350 352 352 353 354 354 354
315 314 316 319 321 324 324 330 336 340 341 347 351 352 354 355 356 357 356 352 350 349 348 350 352 352 352 353 353 353 354 353 352 352 352 352 352 352 353 354 354 355 354
315 315 314 314 317 321 326 326 328 332 337 340 347 353 355 355 356 356 355 354 353 351 348 352 353 352 353 353 353 352 351 351 354 353 352 352 352 353 354 354 355 355 356
313 313 314 314 316 320 324 325 328 329 333 335 341 350 355 355 357 355 355 354 353 351 350 353 353 353 352 352 353 353 351 352 352 353 351 352 354 355 355 355 356 354 353
310 309 310 314 317 320 322 323 326 328 332 334 335 344 351 354 355 355 355 354 351 350 351 353 354 355 355 355 354 352 352 352 354 355 355 357 358 358 356 354 355 354 352
309 309 311 313 315 317 319 322 325 326 328 332 336 344 351 354 354 354 354 353 353 350 348 351 354 356 357 359 358 354 353 354 354 355 356 358 358 357 355 355 356 353 351
307 308 308 310 313 316 318 320 323 324 325 328 331 341 344 348 351 346 349 349 351 356 357 350 352 353 356 357 357 356 355 354 354 354 356 356 356 356 354 355 355 354 354
306 306 307 308 311 314 316 316 318 318 320 323 326 326 328 337 340 344 343 341 342 347 352 352 350 350 351 353 351 350 348 348 349 349 349 353 353 351 353 352 352 353 353
305 304 306 307 310 311 312 312 313 313 315 316 317 318 321 326 328 330 327 324 325 329 331 334 336 337 341 342 345 343 340 338 335 334 333 333 335 336 338 339 340 342 344
303 303 304 306 307 307 306 308 308 307 309 309 309 310 312 311 312 316 318 316 317 318 319 320 320 322 322 323 328 329 333 333 333 332 331 331 331 332 331 332 332 334 339
300 300 302 303 303 303 302 303 303 303 303 304 304 303 303 303 303 305 306 307 308 309 311 312 313 314 316 319 319 321 322 325 321 322 329 330 330 330 330 327 325 323 323
297 298 298 299 299 300 300 299 299 300 300 300 299 299 298 299 299 299 299 301 303 304 304 305 306 307 307 309 310 312 313 316 320 321 320 318 317 315 313 315 317 318 318
296 296 296 296 296 296 297 297 297 297 296 296 296 296 296 296 295 296 296 297 298 299 300 302 303 304 305 306 307 309 311 313 315 315 315 317 315 313 313 311 311 310 310

GFSGL_925_thetae_093.txt.gz
Theta_e
358 357 357 357 358 359 357 355 354 351 352 353 354 353 354 354 355 355 353 354 353 353 354 352 354 352 353 349 347 346 346 347 347 346 348 348 356 353 357 358 357 353 349
357 358 357 357 357 357 358 356 355 354 352 352 354 356 357 356 356 357 355 350 354 354 353 353 353 352 354 354 352 349 349 351 352 353 349 348 349 352 354 356 355 352 350
354 356 357 357 358 357 357 357 355 354 353 352 354 355 354 355 355 357 354 352 352 352 353 352 353 353 353 352 353 350 349 352 351 352 351 350 349 349 351 353 354 351 352
353 354 356 357 358 358 357 357 356 355 355 353 352 354 354 354 355 355 355 354 355 353 353 353 352 352 352 354 355 354 354 353 351 350 350 349 349 349 350 351 349 346 347
352 352 355 356 358 358 358 358 357 356 356 355 354 353 353 354 354 355 354 354 356 356 355 354 353 352 352 352 352 354 353 353 351 350 349 349 349 352 351 350 348 346 347
349 351 352 353 356 358 358 358 358 357 357 356 356 354 352 349 349 352 354 354 355 357 358 358 358 357 354 352 351 346 348 355 357 351 346 344 349 347 344 346 348 346 348
342 344 350 352 352 354 356 357 358 358 358 358 357 356 355 353 346 347 351 353 355 356 357 359 358 352 354 356 356 349 343 342 344 348 355 354 353 353 352 355 350 354 352
331 334 337 343 348 351 352 354 354 356 358 358 358 357 357 356 352 347 345 350 352 354 356 357 357 356 356 358 357 358 358 357 353 349 348 347 350 352 354 354 354 356 355
329 328 330 336 340 342 349 352 351 352 354 355 357 357 358 357 356 353 349 346 348 352 355 356 357 359 358 354 355 358 358 358 353 354 354 352 351 353 352 352 350 346 345
328 328 328 328 334 339 342 346 349 353 355 355 354 355 356 357 358 356 354 351 348 348 347 351 353 356 357 358 356 357 360 359 356 350 351 350 350 349 349 349 352 351 348
325 326 327 329 327 328 336 341 347 350 352 355 356 355 355 355 356 355 356 354 352 351 350 349 347 348 347 351 355 358 359 358 357 354 353 350 348 348 355 356 356 354 351
326 325 325 326 328 327 331 338 340 345 347 352 352 353 355 357 354 354 355 355 354 353 353 350 349 345 342 344 346 348 350 354 355 352 350 347 345 344 344 347 351 354 356
323 326 325 325 325 326 327 329 334 339 342 343 350 352 353 354 352 355 354 353 353 353 353 353 352 352 350 346 342 343 344 349 352 352 351 350 348 344 343 345 346 353 358
321 324 326 324 323 323 324 325 326 331 336 337 338 343 344 349 354 352 355 355 355 352 352 351 351 350 351 352 352 351 348 349 350 351 352 352 351 347 346 347 347 347 349
320 321 323 324 322 321 322 321 323 325 326 328 332 332 335 338 337 337 338 340 343 348 349 352 353 352 351 352 353 354 355 353 352 352 353 354 352 349 348 347 348 348 349
320 320 321 322 322 321 320 319 320 321 323 324 325 325 329 331 334 336 336 336 334 342 348 351 353 354 355 355 355 356 357 357 356 355 354 354 354 352 351 351 350 350 350
317 318 320 320 320 320 320 319 319 319 322 324 325 326 327 329 329 332 335 340 343 349 343 351 356 354 355 356 358 358 358 358 357 355 355 356 355 355 354 353 353 353 351
312 313 314 316 317 318 319 319 319 319 320 322 323 325 329 328 331 333 333 333 334 342 342 352 356 356 354 355 356 358 358 359 359 358 357 357 357 354 352 352 352 351 351
308 309 312 314 316 317 318 319 319 319 320 320 322 323 326 330 330 328 330 331 338 342 346 346 351 353 355 354 355 358 359 358 358 358 358 358 358 358 356 353 350 350 352
306 308 310 311 313 315 315 316 318 319 320 320 322 322 323 327 327 326 329 334 335 337 342 347 351 350 352 352 355 358 358 358 357 356 356 356 357 356 356 357 358 358 358
304 304 306 307 310 313 315 315 316 317 319 320 321 321 322 325 324 323 326 326 327 329 334 340 347 349 351 352 354 356 356 356 356 354 356 357 357 357 356 356 357 356 357
301 302 303 304 305 308 310 313 315 316 317 318 320 321 320 320 320 321 320 318 321 322 323 326 330 338 344 339 341 346 349 347 349 340 339 342 347 346 344 348 347 347 350
300 300 301 302 303 304 305 308 310 312 314 317 318 317 317 318 316 313 312 312 314 316 318 317 321 324 329 330 328 331 333 340 338 340 343 343 342 338 339 340 341 341 340
297 298 298 299 300 301 302 303 305 307 309 311 311 312 312 312 309 306 307 308 309 310 309 310 312 317 315 317 323 330 330 329 328 328 330 334 333 334 335 334 332 331 330
295 295 295 296 297 298 298 300 302 304 306 307 307 307 306 304 302 301 301 303 304 305 305 305 305 312 313 315 318 317 318 319 321 324 326 328 328 327 327 326 324 322 323
294 293 293 294 295 296 297 298 299 301 302 302 301 301 300 299 298 297 298 299 299 299 300 300 300 305 306 307 307 309 311 313 316 319 320 321 321 320 319 319 319 320 319

GFSGL_925_thetae_096.txt.gz
Theta_e
361 360 359 360 361 358 358 353 349 352 352 350 349 352 353 352 352 354 352 353 351 350 352 351 351 352 349 350 355 353 350 346 355 353 350 350 348 347 348 353 353 355 353
360 361 361 361 360 361 359 359 356 352 353 353 352 349 354 354 353 352 352 354 352 352 353 352 352 353 351 351 348 345 349 347 347 350 346 342 346 349 350 354 351 353 352
359 360 360 361 361 360 361 359 359 357 356 352 354 354 355 355 356 354 351 353 351 354 354 353 353 353 354 352 354 352 353 355 353 355 352 354 348 347 348 348 353 350 350
352 354 359 359 360 360 359 360 359 359 358 357 353 354 357 353 352 356 355 355 352 352 353 352 354 353 352 354 352 352 352 352 352 352 350 350 351 350 353 355 351 346 346
348 350 353 355 358 358 359 360 359 359 359 357 357 356 356 357 357 355 354 356 355 353 351 356 354 353 353 353 353 354 354 354 354 354 356 354 351 347 347 347 349 351 348
341 340 344 351 353 356 357 357 358 359 359 359 358 358 357 357 351 351 356 354 356 355 356 352 349 355 356 353 352 351 349 351 354 358 359 352 348 349 349 350 350 350 352
333 333 336 343 348 351 352 354 355 356 357 358 360 359 359 357 353 348 349 355 355 355 355 357 358 356 355 353 352 352 350 344 343 343 347 349 353 346 347 353 356 355 356
331 330 328 333 339 343 348 350 352 353 354 355 356 357 359 359 358 353 349 349 352 353 356 356 355 355 354 355 358 359 357 354 353 349 345 343 342 343 346 349 351 356 357
330 329 329 328 329 336 341 343 347 350 352 353 354 356 357 358 359 358 355 352 348 352 353 353 355 358 357 355 353 356 359 361 361 358 356 354 351 352 353 354 355 353 352
327 328 329 330 330 327 328 338 342 346 349 352 354 356 357 357 357 359 357 356 353 350 348 351 353 353 354 359 362 358 356 355 357 360 357 352 352 354 353 355 354 354 353
326 328 327 327 328 329 330 331 339 341 345 347 350 352 354 356 356 355 355 357 356 355 354 352 351 350 349 348 350 356 359 358 357 357 358 357 355 353 352 351 350 351 352
324 324 328 328 327 326 328 328 327 335 337 345 347 348 349 351 353 355 356 357 356 355 356 355 354 354 351 350 348 344 344 351 356 357 357 356 354 353 352 350 348 349 352
320 324 324 327 328 327 326 324 329 330 336 339 340 343 347 349 349 351 352 354 354 353 354 355 355 354 353 352 352 351 347 347 350 353 355 355 354 352 350 348 346 343 346
319 321 323 324 327 326 324 324 323 325 328 332 333 334 336 335 341 341 341 338 338 341 346 351 352 352 353 353 352 351 351 349 347 350 351 352 351 351 352 352 351 347 350
317 320 322 322 323 326 325 324 324 322 321 322 323 325 329 330 332 331 330 335 336 335 335 338 343 349 353 354 353 353 353 353 351 350 351 351 352 353 354 353 352 349 351
313 317 318 319 321 323 324 324 323 320 320 320 321 321 322 324 326 326 327 328 331 333 337 339 343 348 352 355 356 356 354 353 355 354 353 353 353 354 355 355 353 350 350
311 312 313 315 315 317 319 322 324 323 321 318 321 321 323 324 325 328 328 328 328 330 331 332 340 347 351 353 354 357 358 357 357 357 357 357 357 355 355 354 353 354 353
307 307 310 312 313 315 317 319 321 321 322 322 320 321 322 322 326 329 329 329 328 334 338 337 339 345 351 354 357 356 354 355 357 357 355 351 335 354 357 356 356 354 353
305 307 306 307 309 311 312 315 317 319 320 321 321 321 320 322 324 329 328 328 331 333 335 339 342 345 349 352 353 354 352 354 353 352 354 355 355 355 354 353 353 353 353
304 303 304 305 306 307 309 312 315 316 318 319 320 322 322 323 326 330 328 326 329 329 331 331 334 337 342 348 350 351 352 351 349 349 352 353 354 353 353 353 354 354 353
302 302 302 303 304 305 306 306 309 311 311 316 318 319 320 322 324 325 325 324 325 325 324 322 325 328 332 336 339 345 349 349 349 349 349 350 346 343 340 340 334 336 350
301 300 300 301 301 302 303 305 305 306 308 311 314 318 318 320 322 322 321 320 318 316 315 315 318 321 324 328 329 334 336 342 343 344 346 341 339 339 340 335 335 333 338
299 298 298 298 298 299 301 302 302 304 305 307 309 312 312 314 316 316 315 314 313 311 310 311 312 314 318 320 324 323 326 330 336 338 340 337 340 341 341 340 338 339 341
297 296 296 295 295 296 297 298 299 300 301 302 304 306 309 310 311 311 311 310 310 308 307 306 308 309 311 314 317 318 318 325 326 330 330 332 333 337 338 338 338 338 336
296 295 294 294 294 294 295 295 296 297 298 300 302 305 306 307 307 307 306 305 304 304 303 303 304 306 307 309 313 314 314 319 324 322 324 327 330 331 332 332 330 329 329
296 296 294 293 293 293 292 293 294 295 297 298 300 302 303 302 302 301 301 300 299 299 300 300 301 303 304 306 308 309 311 313 317 319 320 323 325 324 324 323 322 321 321

GFSGL_925_thetae_102.txt.gz
Theta_e
351 352 354 350 353 353 348 352 350 353 352 352 351 348 347 351 352 351 351 349 348 349 346 350 347 350 350 352 350 350 349 351 349 350 350 349 350 348 349 348 350 347 348
352 350 352 350 349 349 348 354 354 351 351 351 350 349 348 350 352 350 350 349 350 351 345 348 349 349 349 351 349 347 349 352 351 353 352 351 349 348 349 348 350 351 349
347 347 349 351 351 351 349 348 354 352 351 352 351 346 350 349 351 353 350 349 348 350 351 349 347 346 346 345 346 348 347 348 349 350 350 349 348 347 350 348 346 345 343
344 347 342 342 349 350 351 349 349 353 353 351 350 347 350 351 352 352 353 352 350 351 352 351 351 350 348 347 349 349 350 350 349 351 351 353 353 353 355 350 342 338 337
342 343 344 341 345 347 346 350 354 351 353 354 352 351 351 349 348 353 354 352 353 352 350 353 352 352 351 350 351 351 351 351 351 351 353 353 352 351 352 352 351 340 338
343 344 343 345 340 337 345 341 347 352 353 352 354 355 354 353 354 354 355 354 354 353 353 353 353 353 353 354 352 354 356 353 353 352 352 351 348 345 342 341 340 342 345
336 339 343 345 343 342 341 340 344 350 351 352 354 354 355 354 354 352 352 356 356 354 354 354 353 352 351 349 350 353 351 354 353 353 352 351 350 348 344 343 345 346 346
330 330 329 331 336 341 343 345 346 348 350 349 351 352 354 355 356 356 355 354 355 354 352 352 354 354 354 352 352 352 353 355 354 354 354 354 355 354 354 355 353 351 352
324 326 329 327 330 331 330 330 337 342 344 348 349 350 351 353 354 354 354 354 354 354 353 352 351 353 356 355 356 355 354 354 354 354 353 353 354 353 356 358 356 353 351
320 322 324 326 328 327 324 324 322 326 331 336 341 344 347 348 350 352 352 353 353 353 353 354 354 353 350 349 350 353 354 352 351 348 350 352 355 357 356 356 357 355 351
317 319 321 322 323 325 327 326 322 324 324 327 339 342 342 345 345 348 350 351 352 352 352 353 352 353 353 352 350 349 349 349 351 352 352 352 353 353 354 354 355 355 353
316 318 319 321 322 322 322 325 325 324 322 328 330 327 330 332 337 345 348 350 350 351 352 352 353 353 353 353 353 353 353 353 353 353 352 351 350 351 352 353 353 353 353
313 315 317 318 318 319 320 321 325 325 323 323 321 320 319 320 321 322 329 332 333 338 341 341 340 348 351 352 353 354 353 353 353 352 350 349 349 349 348 349 351 352 352
310 310 311 312 314 314 314 315 316 317 317 318 319 320 320 319 319 319 322 324 324 325 325 327 329 328 329 330 334 341 338 338 345 349 348 349 350 350 349 348 348 349 350
306 306 306 308 310 311 312 312 313 315 315 314 316 317 318 319 320 319 319 320 322 325 328 327 327 326 326 324 325 329 333 337 348 350 351 350 349 348 348 347 347 348 349
304 304 306 306 306 305 305 307 308 309 311 313 315 315 316 317 318 320 320 320 319 322 326 328 328 327 327 329 332 336 339 342 345 347 350 351 349 348 348 348 348 348 348
303 304 303 303 303 304 304 305 306 305 305 308 311 313 314 316 317 317 318 318 319 319 319 324 327 327 332 336 338 339 340 342 344 347 349 351 351 352 350 350 350 350 350
303 302 302 301 301 302 302 303 304 305 306 307 306 307 309 311 312 314 317 318 319 321 320 322 327 332 333 331 329 327 326 327 331 333 336 346 349 349 350 351 351 351 350
302 301 301 300 299 299 299 299 300 301 302 303 304 306 307 307 307 309 312 318 321 322 323 325 330 327 324 320 317 316 318 320 321 324 332 337 340 346 348 349 349 349 347
300 300 299 299 298 297 297 298 298 299 300 301 301 301 301 302 304 306 308 314 316 320 322 322 319 317 315 313 312 313 313 314 316 318 321 327 334 339 343 346 346 345 343
299 298 297 296 295 295 295 295 295 295 296 297 298 299 300 301 301 303 306 310 312 314 315 314 313 312 310 308 309 311 312 313 313 315 316 319 325 331 337 341 343 345 345
297 296 296 295 295 294 294 293 294 293 294 295 295 295 296 296 298 299 300 302 306 311 312 311 310 310 309 307 306 306 309 309 310 311 313 314 315 318 325 335 339 340 340
297 296 296 295 295 294 293 293 292 292 292 292 292 293 294 295 296 296 298 300 303 306 309 309 308 307 306 306 306 306 307 307 309 310 310 310 311 313 318 326 335 338 337
298 296 296 295 294 293 292 291 291 291 291 291 291 291 292 293 294 295 296 297 298 300 305 305 303 303 303 304 305 306 306 308 309 309 309 309 308 310 313 320 327 333 338
298 297 296 295 294 293 291 290 290 290 289 290 289 290 290 290 291 294 295 296 299 301 301 300 299 300 301 303 304 305 305 307 308 309 308 308 309 310 311 316 323 329 334
299 298 296 296 294 292 291 290 290 289 289 290 289 289 288 289 290 290 292 293 295 296 296 296 297 297 297 297 298 301 303 305 306 307 306 307 309 310 312 318 322 326 329

GFSGL_925_thetae_105.txt.gz
Theta_e
350 349 350 352 351 350 350 348 348 349 349 350 351 350 349 348 351 351 351 350 347 347 347 347 349 348 349 350 350 349 349 350 349 349 350 350 349 348 347 347 348 347 346
350 351 350 350 351 351 350 348 349 351 352 351 350 350 350 346 349 352 351 351 351 346 349 348 346 347 349 349 349 349 349 350 350 349 348 347 346 346 349 349 351 346 336
345 346 347 347 348 349 347 347 348 348 351 351 351 351 349 348 348 350 351 351 351 349 350 350 350 349 347 346 345 345 347 349 349 349 350 348 349 350 351 351 351 345 333
340 340 342 344 342 346 347 349 349 350 351 351 351 351 350 347 349 349 350 352 351 350 349 348 351 350 350 350 348 348 349 350 350 350 350 350 349 348 348 349 343 335 337
342 338 338 342 338 342 344 344 347 349 351 351 352 352 350 348 348 349 351 351 352 353 352 352 350 348 349 350 352 351 352 351 352 351 351 351 351 350 349 346 343 340 345
342 341 342 340 339 339 339 339 344 345 348 352 353 353 354 352 351 351 349 349 353 353 352 353 351 351 351 350 350 352 350 352 353 354 353 352 352 351 350 350 348 346 344
335 340 344 345 343 343 342 341 337 342 345 347 350 351 352 353 354 354 353 353 352 353 355 354 353 353 352 353 352 351 350 349 352 353 354 353 353 353 352 352 352 351 350
326 327 329 332 337 341 343 343 344 344 345 346 348 348 350 351 351 352 354 354 354 353 353 353 354 353 351 351 353 354 353 352 352 352 353 352 352 353 352 354 354 354 354
321 323 324 327 326 325 326 324 326 330 336 340 343 345 347 348 349 350 351 353 353 354 354 354 353 353 353 351 350 351 354 354 354 354 352 351 349 347 350 355 355 352 352
318 320 321 323 324 324 326 325 323 325 326 330 335 342 344 344 344 345 347 349 350 352 352 352 352 353 353 353 352 351 350 350 349 349 349 349 349 350 351 352 353 354 352
316 317 319 321 321 322 323 325 325 323 329 327 330 329 329 326 331 340 345 348 348 349 349 350 350 350 351 351 352 351 350 350 349 349 349 349 350 351 351 351 350 352 352
314 315 317 317 317 319 321 322 322 322 322 321 320 320 319 319 319 320 322 330 328 328 335 340 343 345 346 347 349 350 351 352 353 353 353 353 351 351 351 351 351 350 350
312 312 312 313 313 314 315 316 317 318 318 317 317 318 319 320 320 319 319 319 322 323 326 327 327 328 330 330 330 333 333 336 341 340 343 346 347 347 348 348 348 349 348
306 306 307 308 309 310 311 312 313 313 313 313 314 315 316 317 317 318 319 320 319 319 320 324 327 327 327 326 325 325 324 327 334 339 342 342 347 348 349 349 348 348 347
304 305 306 305 304 304 304 305 306 306 307 310 312 313 313 313 311 314 316 317 318 319 319 320 321 323 326 326 328 332 335 338 339 341 343 345 346 348 348 349 348 347 345
303 303 302 302 302 302 302 302 303 303 304 307 309 308 308 309 309 312 315 316 317 318 318 318 319 320 324 327 333 335 337 338 338 338 339 344 346 347 348 348 349 349 346
302 301 301 301 301 300 301 301 301 300 300 301 300 301 306 307 306 307 310 314 314 317 319 319 319 321 322 329 331 331 330 329 324 326 330 330 334 337 346 347 347 348 347
301 300 300 299 298 298 297 298 298 298 299 298 298 299 299 299 299 301 303 306 311 315 318 320 322 323 324 327 324 320 316 316 316 317 318 321 326 332 336 340 343 345 347
300 300 299 297 296 296 295 295 295 295 295 296 296 297 297 297 298 299 300 303 309 312 314 317 319 321 321 319 317 315 314 314 313 314 316 317 317 322 326 332 337 341 343
298 298 296 295 295 295 294 294 294 294 294 294 294 295 295 295 295 296 297 299 301 305 310 313 314 314 314 312 311 310 309 308 311 313 314 314 315 316 319 324 326 331 337
297 296 296 295 295 294 294 293 293 293 293 293 293 293 292 292 294 295 296 296 297 298 300 302 309 311 311 310 309 308 307 306 306 308 309 310 312 313 316 316 318 322 330
297 296 296 296 295 294 293 292 292 292 292 292 292 292 291 291 292 293 294 294 295 296 298 301 304 306 307 308 307 306 305 305 306 305 306 307 308 310 311 313 315 318 323
297 296 296 296 295 294 292 292 291 291 290 290 290 290 290 290 291 291 291 291 292 295 296 296 297 299 304 304 303 302 301 302 303 303 303 304 304 306 308 310 311 313 317
298 297 296 296 295 294 293 291 290 290 290 290 290 290 289 289 289 289 289 290 291 293 295 296 297 299 300 300 299 299 299 300 301 301 301 301 302 303 303 304 307 310 314
298 298 297 296 295 295 293 291 291 290 290 290 290 289 289 289 288 288 288 288 289 290 291 293 294 296 296 296 297 297 297 297 297 297 298 299 299 301 302 302 304 307 310
298 298 298 297 296 295 294 292 291 291 290 290 291 290 289 289 288 288 288 289 289 290 291 292 292 292 293 293 294 295 296 297 297 297 298 297 297 300 301 302 305 307 312

GFSGL_925_thetae_108.txt.gz
Theta_e
347 348 348 348 348 348 349 348 347 347 348 347 348 348 349 348 348 349 349 349 349 348 347 347 347 347 347 348 351 349 348 349 349 348 348 345 343 343 343 346 348 351 343
347 350 349 349 349 349 349 349 347 347 349 349 348 348 350 349 348 348 350 350 350 350 348 347 349 347 347 348 348 349 347 348 349 348 347 346 344 346 348 349 348 348 338
345 348 349 349 349 348 347 347 344 345 346 347 349 347 348 349 348 347 349 351 349 349 349 349 350 349 349 347 346 346 346 348 349 349 349 349 349 349 348 345 341 338 340
340 340 341 343 344 345 346 346 347 348 348 347 348 350 350 349 348 348 348 349 350 351 350 349 349 348 350 350 350 350 349 349 349 350 350 350 351 351 350 349 349 350 349
340 341 338 340 344 341 341 344 345 345 348 348 347 349 351 351 349 346 347 350 350 350 351 351 352 351 351 349 350 349 351 351 352 352 351 351 351 350 351 350 350 351 352
342 340 341 342 340 341 340 337 340 342 344 347 348 350 351 352 352 352 349 349 349 347 350 352 351 352 352 351 351 351 351 350 351 351 352 351 351 352 352 351 350 348 350
335 337 340 342 344 344 343 341 339 340 344 345 347 349 349 351 351 351 351 353 353 352 353 352 351 353 353 352 352 351 351 353 352 352 352 352 353 353 351 352 352 351 349
327 329 331 332 330 332 335 335 340 342 342 343 343 345 346 347 349 350 351 352 353 353 353 353 352 351 351 351 351 351 349 349 352 353 353 352 353 353 353 352 352 351 351
321 323 325 325 325 325 324 323 326 328 333 334 337 342 344 344 344 345 346 348 349 351 351 352 351 352 352 351 351 352 351 350 348 348 351 353 352 349 349 351 352 350 352
318 319 322 323 323 325 324 323 324 331 337 340 335 335 330 330 330 339 343 346 346 346 347 348 349 349 349 350 350 350 350 351 351 351 350 349 349 349 349 349 349 351 351
316 318 319 320 320 321 323 323 322 323 321 320 319 320 319 319 318 319 325 330 326 326 327 333 339 340 342 344 344 346 347 348 348 348 348 350 352 352 352 352 351 351 351
314 315 316 316 316 317 318 319 319 319 319 319 319 319 319 319 319 319 319 320 321 322 323 325 327 326 326 327 331 330 332 338 341 345 346 346 346 346 344 344 345 348 348
309 310 311 313 313 314 315 316 316 316 315 315 315 315 315 316 317 318 318 318 319 319 319 320 322 326 327 326 326 325 326 326 329 332 333 333 334 339 343 347 348 349 349
306 306 306 306 306 307 309 310 310 309 310 311 312 311 311 312 312 313 315 317 318 318 319 319 319 320 320 323 326 327 331 333 335 338 341 342 342 343 345 346 347 348 349
304 303 302 302 302 302 303 304 304 304 307 307 305 305 307 306 305 306 308 311 314 316 317 318 318 319 319 320 321 328 331 335 337 335 335 337 339 341 342 345 346 347 346
301 300 300 300 300 300 300 300 300 300 302 301 300 302 305 302 300 300 302 305 309 312 315 316 318 319 320 321 322 329 331 329 329 326 325 324 324 330 335 338 343 343 343
300 300 299 298 297 297 297 297 297 297 297 296 297 298 298 297 297 298 299 300 305 308 312 314 317 318 320 322 326 326 324 322 316 316 314 316 321 322 322 328 333 338 341
299 299 297 296 295 295 295 295 295 295 295 295 295 295 295 295 295 295 296 298 300 303 309 312 314 315 317 318 319 320 319 316 315 314 314 316 317 318 319 320 322 327 332
298 297 296 295 295 295 294 294 294 294 294 294 294 294 293 293 294 294 295 297 298 299 300 303 306 312 313 313 313 313 312 311 310 310 311 313 315 315 316 317 319 319 319
298 296 295 295 295 295 294 293 293 293 293 293 293 292 292 292 292 293 294 295 295 296 297 298 299 299 301 306 310 310 309 309 308 308 309 309 310 311 312 313 316 316 317
297 296 296 296 295 294 293 292 292 292 292 291 291 291 290 291 291 291 292 292 292 293 294 295 296 297 299 300 304 306 307 307 307 307 307 307 306 308 310 310 311 312 313
296 296 296 296 295 294 293 292 292 291 291 291 290 290 290 290 290 290 290 290 290 290 291 292 293 295 296 296 297 301 303 303 303 303 303 304 304 304 305 307 309 310 310
296 296 296 296 295 295 293 292 291 291 290 290 290 291 290 290 290 289 289 289 289 289 290 290 291 293 294 295 297 299 300 300 299 299 299 300 301 302 302 303 305 307 308
297 297 297 296 296 295 294 292 292 291 291 290 290 291 291 290 290 289 289 289 289 289 289 289 290 290 291 293 294 294 295 296 296 297 297 297 298 298 298 299 301 302 304
297 297 297 297 296 296 295 293 292 292 291 291 291 291 291 291 290 289 288 289 288 288 288 289 290 290 291 291 291 292 293 293 293 293 293 294 295 295 295 296 297 298 299
298 298 298 298 297 296 295 294 294 293 293 293 293 293 292 291 291 290 289 288 288 288 288 289 289 289 289 289 290 290 291 291 292 293 293 292 292 292 293 294 295 297 299

GFSGL_925_thetae_111.txt.gz
Theta_e
349 350 348 351 349 347 348 347 347 347 347 347 348 347 347 347 348 349 349 349 348 353 351 351 351 347 350 350 352 353 352 352 349 347 350 349 346 350 349 348 351 351 348
350 350 348 347 349 348 348 348 347 346 348 349 347 347 348 349 349 348 348 352 351 353 353 351 350 351 351 352 351 353 352 353 351 350 350 351 353 351 350 352 349 346 348
349 351 352 348 351 351 349 349 348 346 345 344 347 347 347 348 348 349 348 353 351 353 352 353 353 354 353 352 352 351 349 350 352 352 353 353 354 354 354 353 355 355 351
345 346 348 348 349 350 349 348 346 344 345 345 345 347 348 349 349 350 351 349 348 351 349 351 350 352 349 347 350 350 353 353 353 354 353 354 354 354 354 354 354 352 351
343 343 344 347 345 344 345 345 345 346 347 346 347 348 349 349 351 350 350 351 348 348 348 349 351 349 349 351 352 348 351 350 350 350 350 351 352 350 350 353 354 352 350
343 342 342 345 342 344 341 341 341 344 347 349 352 353 354 352 351 351 350 351 352 352 352 350 351 350 351 351 352 351 351 354 354 350 348 350 353 354 352 354 353 352 350
339 338 340 343 345 346 345 344 344 346 347 350 350 353 353 352 350 350 349 351 353 355 355 355 355 353 352 354 355 352 352 351 351 353 355 356 355 354 353 355 354 354 352
331 332 331 334 337 338 340 341 341 342 343 344 345 348 347 346 347 349 350 350 353 354 355 356 356 356 356 353 354 354 355 355 354 351 351 354 350 354 354 356 355 353 352
325 326 326 327 326 325 326 327 329 332 335 342 343 345 340 337 342 345 346 347 351 353 352 352 350 351 350 350 349 352 353 354 353 352 351 350 349 349 349 351 351 352 353
321 321 322 323 324 324 324 326 333 334 336 337 332 327 325 322 324 338 340 338 337 339 343 344 344 344 344 345 346 346 344 350 351 352 353 355 354 353 350 349 351 353 354
318 318 319 319 321 321 321 321 321 323 323 323 321 319 317 317 317 319 322 324 325 330 331 335 334 326 328 331 334 336 336 339 341 343 348 349 351 354 354 353 353 353 353
315 316 316 316 317 318 320 319 319 319 319 321 321 320 318 316 316 316 317 318 318 322 323 324 322 325 326 326 326 326 326 327 329 331 336 339 342 339 340 343 346 348 349
312 312 312 313 314 315 316 315 316 316 316 316 318 318 317 314 312 316 318 317 317 318 318 318 319 320 320 323 324 325 328 331 332 336 338 340 343 343 344 344 344 347 350
310 309 309 309 310 311 312 311 311 312 314 312 311 310 311 310 307 309 311 313 315 316 316 318 318 320 322 323 326 327 332 335 337 340 339 338 338 339 340 342 342 343 348
306 306 306 306 306 307 307 307 308 305 306 307 306 308 308 305 300 300 302 303 305 309 310 318 320 321 321 322 324 325 330 332 332 330 330 331 330 327 328 333 336 339 345
304 304 303 303 303 303 304 302 301 302 299 299 300 302 302 298 297 298 299 300 302 305 313 315 316 318 319 321 323 325 328 328 325 324 324 322 322 323 323 323 324 327 333
303 302 300 301 301 301 301 302 302 298 296 296 296 296 296 295 296 297 297 299 300 305 309 311 314 315 316 317 318 319 320 320 319 322 322 322 322 322 322 322 323 323 323
301 299 300 299 299 300 300 300 300 300 300 299 297 295 294 294 295 295 297 301 302 302 302 304 305 307 311 313 315 315 315 315 315 315 317 317 316 317 319 320 321 322 323
301 299 299 298 298 298 298 298 299 299 299 298 298 297 295 294 295 296 297 299 299 300 300 301 301 302 302 304 306 308 309 312 312 313 313 314 315 315 315 316 317 317 318
299 297 298 298 298 298 298 298 298 298 297 297 297 295 294 296 296 296 296 296 296 296 297 297 298 299 300 301 301 301 303 306 307 309 309 310 311 313 313 312 313 315 316
300 298 298 298 298 297 297 297 296 296 296 296 295 293 292 295 295 295 295 294 294 294 294 294 295 295 296 298 299 299 300 301 303 305 304 304 305 306 306 306 307 308 310
299 299 299 299 298 297 297 296 296 296 296 295 295 294 293 295 294 294 294 293 293 292 292 292 292 292 293 295 295 296 297 299 301 301 301 301 301 302 302 303 303 304 305
298 298 298 298 298 296 296 296 296 296 295 295 295 295 295 294 293 293 292 292 291 290 290 290 290 290 290 291 292 293 294 295 295 295 297 298 298 299 299 300 300 301 302
298 299 299 299 298 298 297 296 296 295 295 295 296 295 295 294 293 292 291 291 291 290 290 289 290 290 291 291 291 291 291 291 292 292 293 293 295 296 297 297 297 297 298
298 299 299 299 299 298 297 297 296 296 296 296 296 296 296 295 295 294 292 291 290 290 289 289 289 289 289 289 289 289 290 290 290 291 290 290 291 292 293 294 295 296 296
299 299 299 300 299 299 298 298 297 297 297 297 296 296 296 295 294 294 292 290 289 289 289 289 290 289 288 288 290 290 291 292 292 292 292 290 290 290 291 292 293 294 295

GFSGL_925_thetae_114.txt.gz
Theta_e
350 351 350 351 351 352 352 353 351 353 355 353 354 353 353 353 353 353 353 352 354 352 353 354 353 353 348 347 348 348 348 348 349 347 347 346 352 353 352 353 348 346 344
352 353 353 351 352 351 352 353 354 354 355 356 355 355 353 352 354 352 352 350 353 353 352 352 352 349 352 351 348 348 348 350 350 350 348 349 350 352 352 355 352 347 348
353 352 351 351 352 352 353 350 352 353 354 355 356 355 355 354 355 353 353 353 352 353 353 352 353 351 354 351 352 352 349 347 348 348 348 347 348 349 351 350 349 350 346
352 353 353 353 353 352 352 352 352 354 353 353 353 354 354 352 353 355 355 354 353 353 352 351 352 352 352 353 353 353 352 352 349 351 349 349 347 348 350 348 345 346 347
347 349 350 352 353 354 354 353 353 354 353 353 353 353 354 354 353 355 355 355 353 352 352 352 351 352 351 350 351 351 353 351 348 347 347 346 346 349 348 346 346 347 347
342 344 346 349 350 350 351 352 352 352 353 354 354 354 354 352 350 351 354 354 354 354 354 354 353 352 351 349 350 351 352 354 354 352 348 347 351 352 349 350 351 350 350
344 344 345 345 345 347 347 348 348 349 351 353 354 355 353 353 352 351 350 352 355 356 356 356 354 350 352 353 352 353 353 350 351 352 353 353 353 353 353 354 353 353 353
341 341 342 342 342 344 344 346 347 348 349 350 350 351 348 343 347 349 350 352 354 355 355 356 356 356 355 355 356 355 354 354 354 355 355 356 355 355 355 354 354 355 355
333 335 337 337 338 337 336 338 341 345 345 346 346 342 336 335 343 346 348 352 352 353 354 354 354 353 350 348 349 354 355 355 354 354 354 353 353 352 351 351 351 351 351
330 332 333 334 333 333 333 335 337 340 341 336 334 332 325 322 330 338 341 344 346 346 345 344 341 339 340 340 341 347 349 351 351 350 351 352 352 354 353 353 353 354 353
324 325 327 328 329 329 331 334 334 334 333 332 328 323 319 320 319 320 323 325 332 334 336 337 336 326 326 326 326 332 335 329 335 340 344 347 349 352 353 353 352 353 354
321 323 324 324 325 326 326 326 328 329 329 328 327 325 323 319 316 317 317 318 323 327 326 325 325 321 322 322 325 326 325 327 332 333 334 337 339 341 345 345 346 346 347
320 320 320 321 322 324 324 324 324 324 325 325 324 325 323 320 316 314 314 316 317 322 320 319 319 320 322 325 325 322 326 336 336 337 338 338 338 338 340 341 343 345 345
317 317 317 318 318 319 319 319 321 322 322 321 319 318 316 312 308 308 308 310 312 316 315 317 321 321 323 323 325 327 329 331 334 334 333 332 333 332 331 331 332 335 336
313 313 313 313 314 314 311 312 311 305 310 316 315 315 313 310 302 299 299 300 302 306 306 316 318 318 320 321 322 323 325 330 332 330 328 328 328 327 327 327 326 325 326
311 310 310 310 310 311 309 306 304 301 303 302 304 306 304 298 297 297 298 299 300 306 314 314 316 317 317 319 320 322 323 323 323 322 323 324 325 326 326 326 326 327 327
309 308 306 307 307 307 308 308 305 297 297 297 297 296 296 296 297 298 299 301 302 308 309 309 310 311 312 314 315 316 316 317 318 318 318 319 320 320 320 322 324 324 325
307 304 305 305 305 305 306 306 306 307 306 304 298 297 295 296 296 298 302 305 306 306 306 306 306 306 307 307 308 310 310 310 312 314 314 315 316 316 317 318 318 320 322
304 304 304 304 304 304 304 304 304 305 305 304 303 300 298 298 299 300 301 303 304 303 303 303 303 304 304 305 305 306 306 306 306 308 310 310 312 313 315 315 316 316 315
304 302 303 303 302 303 303 303 303 303 303 303 302 300 300 302 302 302 301 301 301 301 301 300 300 300 301 301 302 303 303 304 305 305 306 307 307 307 308 309 308 309 310
303 301 301 303 303 303 303 302 302 302 302 302 301 295 296 300 301 300 300 300 299 299 298 298 298 298 298 298 298 298 299 300 301 301 302 304 305 304 304 303 303 304 304
303 302 301 303 302 302 302 302 301 301 301 301 301 298 297 300 300 299 299 298 297 297 296 296 296 295 295 295 294 295 295 295 296 297 297 297 297 299 300 301 301 302 302
303 303 302 302 302 301 300 301 301 301 301 301 300 300 300 300 299 298 297 297 297 296 295 294 294 293 293 293 293 293 293 294 294 294 294 294 294 296 297 298 299 300 300
302 302 302 302 302 302 302 301 300 299 301 301 301 300 300 300 299 299 298 296 295 295 295 294 293 292 292 292 292 292 292 292 291 290 291 292 292 293 295 295 296 297 298
303 302 302 302 302 301 301 301 301 301 301 300 300 300 300 300 299 299 298 296 294 293 292 292 292 291 290 290 290 291 290 290 290 291 292 291 289 289 290 292 293 294 295
304 302 302 302 303 303 302 302 301 301 301 301 300 301 300 300 299 299 298 296 294 294 293 292 291 290 290 290 289 289 289 290 291 292 293 294 291 289 289 290 291 292 293

GFSGL_925_thetae_117.txt.gz
Theta_e
350 351 351 350 350 352 352 352 353 356 358 356 355 353 353 353 353 354 355 356 355 353 353 354 355 354 352 349 349 347 346 346 348 346 348 346 345 350 353 353 351 351 346
351 353 352 351 350 350 350 353 353 355 355 356 355 355 354 354 355 355 353 349 352 352 351 351 352 351 352 353 350 348 346 347 347 349 346 346 347 349 350 352 349 348 348
354 354 354 353 352 350 350 352 354 354 354 354 355 356 355 355 356 356 356 354 353 352 351 350 350 351 351 351 353 353 349 350 351 348 348 346 347 348 351 349 349 347 347
353 354 353 354 353 351 349 351 352 354 355 353 356 355 355 355 355 354 355 356 354 352 352 352 351 351 351 353 354 354 354 353 350 350 347 347 346 345 350 347 344 345 347
349 351 353 353 353 354 354 353 352 353 353 353 353 354 354 353 352 354 355 355 356 354 352 352 352 352 352 353 353 352 354 354 349 347 345 344 344 351 347 348 348 348 347
345 348 350 352 353 353 355 355 354 352 353 353 354 353 354 351 350 351 352 353 353 355 354 354 353 354 353 351 348 346 348 353 356 354 351 350 354 352 351 350 352 348 350
343 345 348 349 350 352 352 352 350 352 350 352 353 353 351 351 351 351 351 352 355 355 355 354 355 349 351 353 354 352 352 352 351 349 354 355 355 356 355 357 355 356 355
346 346 345 345 347 347 348 348 349 350 350 351 352 354 345 343 348 349 350 350 351 353 353 355 354 356 355 354 353 357 356 355 355 353 353 354 354 354 355 356 355 354 354
343 344 344 344 345 342 342 342 345 345 346 347 348 342 337 338 343 345 347 354 356 352 349 350 351 348 349 348 348 353 354 354 354 353 352 352 353 353 353 353 353 353 352
336 339 340 339 338 337 339 338 342 344 342 337 335 332 329 327 334 342 342 346 350 350 349 346 341 333 333 333 334 341 348 348 340 341 344 348 350 351 353 355 355 354 356
329 332 337 338 337 338 338 338 337 338 337 334 330 326 324 321 320 323 330 334 335 336 339 339 334 325 324 325 325 335 333 325 331 335 336 336 338 342 345 347 347 348 351
325 328 329 330 330 332 335 337 337 337 335 333 331 329 326 318 317 318 318 320 327 330 328 328 326 320 320 321 326 325 322 324 337 339 341 340 340 341 340 341 341 344 344
322 323 326 327 329 329 330 332 332 333 333 333 332 330 327 323 320 315 314 317 318 319 323 319 319 320 322 325 327 325 328 332 334 334 334 335 334 334 335 334 332 331 336
321 322 322 324 325 326 326 326 327 327 327 328 327 327 325 319 313 308 308 309 311 316 315 314 316 320 323 323 324 326 328 328 330 333 333 331 330 330 330 329 330 330 329
319 319 319 318 320 320 314 316 315 314 314 320 321 321 318 320 307 301 301 301 302 302 306 317 318 319 321 321 322 323 326 327 328 327 325 324 324 325 325 326 327 326 328
316 315 315 315 317 315 313 308 307 305 304 307 311 311 304 301 299 299 299 301 302 308 314 314 315 316 317 316 317 318 319 320 321 320 320 320 320 320 321 321 321 322 324
314 313 311 311 312 313 313 311 306 298 297 298 298 298 299 297 298 298 301 304 305 309 311 311 311 311 311 311 311 311 313 313 312 313 315 316 315 317 318 318 318 319 320
312 309 310 310 310 310 311 311 311 310 310 306 298 298 297 298 298 302 305 307 309 309 309 309 309 309 309 309 309 309 309 309 309 309 309 311 312 312 313 314 315 316 317
310 307 308 308 308 308 309 308 308 309 309 308 305 302 301 302 303 303 305 307 307 307 306 306 306 306 306 306 306 306 307 307 306 308 308 309 309 308 308 308 308 308 308
308 306 306 307 305 306 307 307 307 308 308 307 307 304 305 304 306 306 305 305 305 305 304 304 303 303 303 303 303 303 303 303 304 304 304 305 305 304 304 306 306 306 305
307 304 303 305 306 306 306 306 307 307 307 306 305 298 301 304 305 305 304 304 303 302 302 302 301 301 300 300 300 300 300 300 300 300 300 299 299 300 300 300 301 302 303
306 305 303 305 305 305 305 305 305 305 305 305 304 300 300 303 304 304 303 303 302 301 301 300 300 299 299 298 298 298 297 297 297 297 297 296 296 296 296 297 299 300 301
306 305 305 305 305 304 304 304 304 304 304 304 304 304 303 304 303 302 301 301 301 300 300 299 299 298 297 296 296 296 295 295 295 294 294 294 293 294 294 295 297 299 300
306 305 305 305 305 305 304 304 304 303 304 304 304 304 304 303 303 303 302 301 299 299 299 298 297 296 296 295 295 294 293 293 291 291 291 291 291 292 292 291 292 293 296
307 306 305 305 305 304 305 305 304 303 302 303 304 303 304 303 303 302 302 300 299 299 298 297 296 296 295 294 293 293 292 291 289 289 289 289 290 292 292 291 291 291 292
308 307 306 305 305 305 304 304 304 304 304 303 303 303 304 303 303 302 302 301 300 299 298 297 296 295 293 293 293 291 289 290 289 289 290 291 292 292 292 292 293 292 292

GFSGL_925_thetae_123.txt.gz
Theta_e
353 351 352 351 350 352 353 349 353 352 354 353 352 353 349 354 353 351 349 351 351 353 349 351 351 352 352 351 351 352 353 352 349 351 350 349 346 344 346 349 352 349 349
355 351 350 352 353 352 353 353 351 353 352 353 351 351 353 353 352 351 353 352 353 350 350 352 350 350 349 349 348 352 352 352 352 351 349 347 349 351 350 349 350 350 349
356 354 350 351 352 352 349 353 352 352 351 353 352 353 351 352 353 354 352 352 354 352 354 350 351 351 352 351 350 351 351 351 352 353 354 351 351 353 351 350 350 351 349
350 352 351 352 351 351 351 350 350 353 351 351 353 354 354 353 352 353 352 351 352 352 351 354 351 351 353 352 351 350 352 351 350 352 350 350 349 348 350 352 350 346 349
346 349 349 343 345 349 350 351 351 352 350 351 349 350 351 352 353 353 353 354 353 352 351 352 352 353 351 351 351 351 352 350 347 347 350 351 350 350 352 352 352 353 352
347 349 348 345 338 342 346 348 351 351 353 352 351 352 352 352 351 350 350 353 353 351 351 352 352 351 351 351 351 351 351 349 349 349 351 352 353 353 352 353 353 353 354
346 346 347 346 344 343 341 345 345 347 351 352 350 351 351 350 350 350 349 350 352 351 352 350 351 351 351 349 349 351 350 350 353 353 353 352 352 353 353 351 350 352 353
344 343 344 345 345 346 346 346 346 346 348 350 351 350 350 348 347 347 347 349 350 350 349 347 350 349 347 346 347 348 351 352 351 350 348 348 347 346 349 349 350 352 350
344 343 343 343 343 343 343 342 343 346 346 347 346 343 342 341 342 344 345 349 349 348 348 347 346 338 333 332 335 340 343 340 328 326 332 336 336 338 343 347 345 344 346
346 344 344 344 344 342 341 343 342 343 342 341 335 334 329 333 340 341 348 349 349 346 335 332 327 326 325 324 327 327 322 322 327 338 339 340 340 340 339 336 337 342 342
340 341 341 341 339 338 339 340 340 338 335 332 332 325 322 321 324 335 336 335 335 342 332 327 321 320 321 325 327 325 325 329 333 334 337 332 331 328 329 329 330 332 332
335 336 337 338 339 339 337 338 338 336 335 332 327 319 318 318 318 322 328 328 328 330 327 322 320 320 322 326 325 324 324 327 333 331 327 324 324 324 324 324 324 324 325
329 330 331 332 334 335 338 338 336 335 332 329 326 321 321 321 319 318 318 319 321 321 320 316 314 318 321 322 325 326 328 327 325 323 322 322 321 321 321 321 321 321 320
327 328 328 327 326 327 328 326 326 324 326 329 332 325 319 318 318 315 314 314 314 313 310 320 321 321 321 320 320 319 319 318 318 317 317 317 318 318 317 316 318 319 320
321 322 324 325 320 319 319 316 316 314 316 316 319 323 320 317 316 314 306 305 304 308 317 317 318 317 314 312 313 313 313 311 311 310 310 311 311 313 312 312 313 313 313
320 320 319 322 320 318 316 313 310 310 312 316 314 312 311 311 310 305 302 302 306 314 316 313 313 312 311 311 311 310 310 310 309 309 310 311 311 310 309 309 309 308 308
316 316 317 319 320 316 314 311 309 304 303 303 307 310 307 305 301 301 303 308 309 311 313 311 310 309 309 308 308 308 307 306 307 307 307 306 306 305 304 304 303 303 303
314 312 312 312 317 316 314 312 312 306 303 303 300 300 299 299 303 306 307 307 309 309 308 307 307 307 306 306 306 305 304 304 303 303 303 302 301 301 301 300 300 299 300
313 310 310 311 311 311 312 313 313 310 311 305 302 301 301 302 306 308 308 309 307 307 306 305 305 305 304 304 303 302 302 301 301 301 300 300 299 298 298 298 298 298 298
311 309 309 309 309 309 309 310 310 313 310 307 305 305 305 306 307 307 306 306 305 305 304 304 303 303 302 301 300 300 300 299 299 298 298 297 296 296 296 296 296 296 297
310 309 307 307 307 306 307 308 309 309 310 309 307 306 306 307 308 306 305 304 304 304 303 302 302 301 300 299 299 299 298 298 297 296 295 294 294 293 294 295 294 294 295
310 309 307 306 306 307 307 306 307 308 309 307 305 303 303 306 306 305 304 304 303 302 302 301 301 300 299 298 297 297 296 296 295 294 292 291 291 292 292 292 292 293 293
310 309 306 304 305 306 307 306 306 306 307 306 305 303 305 306 305 304 304 303 302 302 301 300 300 299 298 297 296 296 295 294 293 291 290 290 290 290 290 291 291 292 293
311 309 306 305 304 305 306 305 305 306 306 306 305 304 301 305 304 304 303 302 301 301 300 300 299 298 297 297 296 295 294 293 292 291 289 289 289 290 289 290 290 291 294
311 311 309 307 306 305 306 306 305 305 305 306 305 305 305 304 304 303 303 302 301 300 300 299 298 298 297 296 295 294 293 292 291 290 290 290 290 289 289 289 291 294 294
313 310 310 309 307 306 306 306 305 306 305 305 304 305 305 305 305 304 303 302 301 300 300 299 299 298 297 296 295 295 294 293 292 292 292 292 291 290 291 292 293 294 295